[{"header": {"dx": 0.06612293990616946, "dy": 0.0552356325346848, "nx": 98, "ny": 59, "la1": 35.046912555036876, "la2": 31.78801023549047, "lo1": -121.43107172385933, "lo2": -114.95102361305473, "refTime": "2026041014", "parameterCategory": 1, "parameterNumber": 2}, "data": [5.48, 2.43, -0.0, -0.0, -0.0, -2.43, -4.66, -5.48, -6.6, -0.0, -0.0, -0.0, -0.0, -0.0, -0.0, -7.59, -7.59, -9.6, -9.6, -7.27, -2.97, -0.0, 2.17, 4.0, 4.0, 5.63, 6.64, 6.64, 5.59, 4.6, 3.49, 2.17, -0.0, 6.71, -6.71, -0.0, -0.0, -0.0, -0.0, -2.54, -6.01, -9.83, 11.62, 5.8, 12.79, 13.99, 15.59, 17.09, 16.69, 15.99, 11.6, 8.53, 8.53, 9.42, 9.69, 9.69, 10.47, 10.99, 10.99, 11.5, 11.5, 11.72, 10.37, 10.37, 9.84, 10.73, 11.88, 12.17, 12.58, 12.72, 12.72, 11.96, 11.56, 11.61, 12.14, 11.2, 10.41, -0.0, -13.86, -12.52, -10.28, -9.64, -9.21, -8.0, -6.32, 0.0, 6.01, 8.06, 8.06, 8.3, 10.4, 10.04, 10.01, 10.29, 10.29, 10.66, 9.81, 8.99, 5.31, -0.0, -0.0, -0.0, -0.0, -0.0, -5.64, -5.64, -6.6, -0.0, -0.0, -0.0, -0.0, -0.0, -0.0, -0.0, -7.27, -10.4, -9.2, -8.18, -7.27, -0.0, -0.0, 2.83, 3.6, 5.1, 5.36, 5.36, 5.36, 4.0, 1.58, 1.67, 2.4, 4.43, 6.26, 7.15, 8.05, -0.0, -0.0, -2.83, -6.95, 11.62, 5.8, 8.94, 11.7, 14.88, 16.87, 16.41, 16.33, 12.45, 8.22, 8.22, 8.75, 9.52, 9.36, 10.23, 10.99, 11.31, 11.77, 11.77, 11.99, 11.33, 10.37, 9.84, 9.84, 10.37, 11.5, 11.77, 12.18, 12.21, 12.72, 12.04, 12.51, 12.58, 12.79, 12.79, 12.39, -0.0, -13.86, -12.52, -10.28, -9.64, -9.21, -8.0, -6.32, 0.0, 6.01, 8.06, 8.06, 8.3, 10.4, 10.04, 10.01, 10.29, 10.29, 10.66, 9.81, 8.99, 5.31, -0.0, -0.0, -0.0, -0.0, -0.0, -2.98, -5.64, -6.8, -0.0, -0.0, -0.0, -0.0, -0.0, -0.0, -0.0, -7.9, -10.0, -10.6, -10.6, -9.54, -9.6, -5.0, -0.0, 4.96, 5.1, 5.36, 6.32, 6.32, 2.17, -0.0, 1.4, 1.73, 5.37, 6.36, 8.49, 8.05, 8.94, -0.0, -0.0, 0.0, 3.36, 7.2, 10.39, 11.8, 14.22, 17.47, 18.08, 12.45, 8.24, 8.49, 9.3, 10.04, 10.01, 9.88, 10.09, 11.5, 11.77, 11.77, 12.21, 11.99, 10.99, 9.84, 8.44, 8.44, 9.76, 10.62, 10.94, 11.77, 11.92, 12.72, 13.32, 13.23, 13.33, 12.96, 12.52, 12.52, 13.57, -13.86, -13.15, -10.14, -9.21, -8.3, -7.67, -7.15, -2.83, 2.54, 7.07, 7.76, 10.0, 12.03, 11.64, 10.24, 10.63, 10.04, 10.0, 9.33, 9.11, 3.47, -0.0, -0.0, -0.0, -0.0, -0.0, -2.98, -6.8, -6.6, -4.38, -0.0, -0.0, -0.0, -0.0, -7.9, -7.9, -0.0, -8.53, -10.8, -10.6, -10.6, -9.75, -10.0, -5.2, -0.0, 3.11, 5.1, 6.32, 6.32, 4.71, -0.0, -0.0, -0.0, 4.96, 7.44, 9.11, 9.54, 11.18, 11.03, 11.99, 8.93, 9.66, 10.66, 11.73, 12.33, 15.69, 15.2, 10.0, 8.37, 9.48, 9.86, 10.61, 10.61, 10.19, 9.5, 10.37, 11.12, 12.21, 12.21, 12.6, 12.04, 10.55, 7.28, 7.28, 7.51, 8.24, 9.69, 10.01, 11.28, 12.39, 13.81, 14.25, 14.7, 12.96, 11.71, 10.8, 11.61, 13.01, -11.06, -12.72, -9.33, -9.64, -7.67, -7.07, -7.2, -6.32, 0.0, 6.01, 7.41, 11.66, 13.27, 11.6, 10.73, 10.16, 10.73, 9.7, 9.39, 8.73, 3.47, -0.0, -0.0, -0.0, -0.0, -0.0, -3.69, -3.69, -3.58, -4.38, -0.0, -0.0, -0.0, -0.0, -7.59, -8.22, -0.0, -0.0, -8.53, -10.8, -11.2, -9.6, -4.8, -0.0, -0.0, 3.53, 5.46, 6.64, 7.81, 6.01, 2.83, -3.11, -3.68, 5.2, 10.84, 10.96, 11.18, 12.96, 15.34, 14.66, 13.59, 15.59, 14.75, 13.15, 12.96, 11.45, 10.09, 9.7, 9.86, 10.24, 10.87, 10.87, 10.87, 9.62, 10.19, 10.79, 11.6, 12.21, 12.72, 12.6, 11.6, 7.19, 5.6, 5.4, 6.94, 7.68, 9.36, 8.85, 10.73, 12.03, 13.75, 15.18, 15.78, 15.2, 10.41, 5.0, 6.97, 6.45, 0.0, -12.03, -9.04, -8.05, -7.28, -7.37, -6.6, -3.8, 5.59, 7.35, 10.24, 12.22, 12.26, 11.09, 10.35, 4.8, 2.28, 8.91, 8.9, 9.06, 3.47, -0.0, -0.0, -0.0, -0.0, -0.0, -0.0, -3.58, -4.66, -4.38, -0.0, -0.0, -0.0, -0.0, -7.9, -11.18, -11.62, 12.07, -12.07, -12.52, -12.52, -12.07, 13.41, -0.0, 5.4, 5.4, 8.22, 9.3, 10.18, 10.18, 6.64, -0.0, -6.95, 12.07, 13.41, 13.41, 12.96, 13.86, 17.43, 17.81, 7.2, 14.3, 12.14, 11.87, 11.5, 10.87, 10.24, 10.8, 10.48, 10.48, 9.67, 10.04, 10.04, 10.41, 11.26, 12.04, 12.18, 12.51, 13.01, 13.01, 10.79, 3.96, 3.82, 4.48, 5.6, 7.18, 8.32, 9.69, 10.47, 12.03, 13.64, 14.58, 14.65, 15.81, 15.65, 9.8, 0.0, 0.0, 0.0, -10.35, -7.21, -4.96, -4.46, -4.87, -3.99, 0.0, 6.2, 10.12, 11.47, 11.17, 10.54, 9.5, -0.0, -1.67, 2.97, 9.39, 9.75, 10.32, 3.47, -0.0, -0.0, -0.0, -0.0, -0.0, -0.0, -3.58, -4.52, -4.38, -0.0, 4.4, -0.0, 10.73, -12.07, -11.18, -12.07, 12.52, 12.52, 12.52, -12.96, -10.12, 0.0, 0.0, 15.2, 14.75, 15.2, 14.3, 12.96, 10.18, 7.59, 2.97, 4.4, 9.83, 11.62, 13.59, 14.3, 13.86, 13.86, 9.48, -14.3, 12.96, 9.48, 12.72, 11.8, 9.96, 9.42, 10.01, 9.82, 10.73, 10.35, 9.97, 11.2, 11.5, 12.04, 12.66, 12.71, 12.9, 12.92, 12.66, 7.51, 1.71, 2.52, 3.82, 5.86, 7.68, 10.02, 10.37, 11.12, 12.18, 13.23, 13.23, 13.29, 15.67, 16.37, 16.54, 6.2, 0.0, 0.0, 1.93, -3.14, -1.67, -0.93, -1.09, 0.0, 3.47, 7.01, 9.77, 11.06, 9.8, 7.82, 8.85, -3.15, -3.15, 6.32, 8.37, 10.15, 10.4, -0.0, -0.0, -0.0, -0.0, -0.0, -0.0, -0.0, -4.66, -4.52, -4.24, -0.0, 4.4, -0.0, -0.0, 12.52, -11.18, -12.07, 12.96, 12.96, 13.41, -0.0, -0.0, 13.41, 0.0, 6.8, 6.8, 11.06, 11.38, 0.0, 13.41, 8.53, 10.8, 12.52, 12.52, 10.96, 11.62, 12.04, 11.02, 11.62, 11.62, -12.96, -13.86, -16.09, 16.99, 7.2, 8.58, 7.56, 8.53, 8.53, 9.17, 10.4, 10.8, 11.87, 12.04, 12.39, 12.52, 12.07, 12.07, 12.07, 11.71, 2.28, -0.0, 1.84, 4.58, 7.73, 10.52, 11.53, 11.85, 11.84, 12.37, 12.86, 13.31, 13.83, 14.3, 15.2, 15.2, 14.75, 12.52, 10.41, 10.12, 6.35, 0.0, 0.0, 1.52, 3.11, 4.94, 7.25, 8.72, 8.95, 7.54, 5.0, -4.22, -3.4, -0.0, 8.49, 7.6, 10.23, 10.04, -0.0, -0.0, -0.0, -0.0, -0.0, -0.0, -4.66, -4.66, -7.93, -5.8, -0.0, -0.0, -0.0, -0.0, -0.0, 12.52, 12.96, 13.41, 13.41, 13.41, -0.0, -0.0, -0.0, 14.3, 0.0, 7.9, 6.95, 0.0, 0.0, 14.3, 12.39, 13.59, 14.42, 13.15, 12.27, 11.4, 9.3, 10.0, 9.97, 10.28, -12.96, -14.75, -14.75, -12.52, -0.0, -0.0, 5.6, 9.17, 9.36, 9.36, 10.3, 9.42, 11.45, 11.95, 12.07, 11.51, 11.18, 11.28, 11.62, 6.45, 1.84, 1.52, 1.69, 5.98, 10.82, 12.42, 12.66, 12.71, 12.07, 12.07, 12.52, 13.41, 14.28, 14.72, 14.26, 13.01, 11.28, 11.84, 13.44, 14.86, 11.7, 1.3, 0.75, 2.82, 3.53, 4.84, 6.36, 7.9, 6.44, 5.9, -0.0, -1.98, -3.0, 0.0, 7.28, 8.67, 10.28, 9.04, -0.0, -0.0, -0.0, -0.0, -0.0, -0.0, -4.66, -4.66, -7.93, -9.17, -5.6, -0.0, 5.4, 6.0, -0.0, 13.41, 0.0, 0.0, 0.0, -9.48, -12.96, 12.96, 13.86, 14.3, 14.3, 11.62, 9.39, -10.73, 0.0, 10.12, 12.27, 11.7, 11.06, 9.8, 10.8, 10.6, 10.41, 8.4, 10.4, 0.0, -9.17, -10.79, -11.03, -9.2, -10.28, -0.0, 6.45, 8.53, 9.17, 9.17, 8.32, 8.53, 9.3, 10.09, 11.51, 11.62, 10.79, 9.3, 11.62, -0.0, -0.0, 1.02, 3.19, 7.69, 10.12, 11.53, 12.66, 12.51, 12.01, 10.79, 12.2, 13.21, 14.09, 14.47, 13.88, 11.33, 8.75, 9.81, 11.21, 14.51, 15.87, 11.7, 2.91, 2.31, 3.32, 4.2, 5.52, 6.42, 6.58, 6.32, 7.6, 8.49, 0.0, 1.84, 5.53, 8.65, 9.66, 7.64, -0.0, 3.36, 3.47, 4.66, -0.0, -0.0, -4.66, -4.66, -4.52, -9.48, -9.17, -0.0, -0.0, 6.2, 10.12, 14.3, 15.65, 11.06, 7.0, 9.42, 12.33, 17.43, 16.99, 14.75, 14.75, -12.96, -10.28, -10.28, 12.96, 9.8, 11.6, 12.96, 12.07, 11.18, 0.0, 11.45, 11.62, 11.62, 0.0, 0.0, -4.52, -6.0, 0.0, 11.18, -0.0, -0.0, 3.39, 5.0, 5.75, 5.54, 5.98, 6.7, 7.64, 7.78, 7.13, 7.9, 8.93, 12.07, -12.07, -3.19, -0.0, 1.84, 4.38, 6.6, 5.99, 8.18, 10.69, 11.53, 12.39, 11.09, 11.44, 12.39, 13.75, 13.2, 12.62, 11.35, 9.17, 8.53, 10.12, 11.99, 14.42, 13.39, 10.75, 7.78, 6.32, 5.06, 6.01, 7.51, 9.33, 8.49, 7.6, 3.25, 0.0, 1.84, 5.49, 8.93, 7.68, 0.0, -0.0, 3.36, 3.47, 3.58, -0.0, -0.0, -0.0, -4.66, -4.52, -6.0, -11.99, -9.8, -0.0, -0.0, 11.99, 11.87, 12.52, 14.75, 15.78, 16.99, 16.37, 15.47, 15.04, 15.27, 11.99, 9.17, -0.0, -0.0, -0.0, 10.28, 10.73, 11.62, -0.0, -9.83, 10.73, 0.0, 10.28, 12.07, -8.85, -4.24, -9.8, 13.41, -0.0, -0.0, -0.0, -0.0, -0.0, -0.0, 1.76, 1.76, 2.1, 4.47, 5.51, 5.6, 5.29, 5.89, 7.13, 8.15, -8.85, -6.58, -0.79, 2.13, 4.24, 3.2, 2.24, 4.81, 7.36, 8.65, 9.21, 10.91, 12.58, 12.45, 12.96, 12.3, 10.12, 10.3, 9.17, 8.85, 8.85, 11.99, 13.86, 6.0, 12.52, 13.99, 10.73, 9.39, 8.67, 9.39, 8.94, 8.94, 9.33, 5.95, 1.67, 2.09, 5.64, 7.9, 6.95, -7.6, -0.0, 3.36, 3.47, 6.6, 3.58, -0.0, -0.0, -0.0, -0.0, -6.2, -9.8, -10.12, -14.75, 15.2, 11.06, 13.59, 13.88, 13.15, 12.79, 13.28, 13.09, 13.09, 12.85, 13.15, 13.01, 12.89, 12.72, 11.99, 10.04, 4.4, 10.73, 11.62, -11.62, -11.18, -0.0, -6.95, -10.28, -11.18, -10.4, -10.8, -12.52, -5.6, -0.0, -0.0, -3.11, -2.17, -3.11, -3.25, -0.0, -0.0, -0.0, 1.47, 2.58, 3.45, 3.68, 4.75, 6.08, 11.06, 10.4, -2.54, -2.93, 1.11, 2.48, -0.0, -0.0, 0.95, 3.95, 5.96, 6.94, 7.59, 9.82, 10.12, 9.36, 8.94, 12.07, 8.85, 9.17, 12.07, 12.52, 11.45, 7.59, 10.4, 12.52, 6.0, 11.2, 12.14, 10.52, 9.83, 9.83, 8.49, 8.77, 7.15, 3.4, 4.21, 6.7, 8.53, 7.27, -7.15, -0.0, -0.0, 3.36, 6.4, 6.6, 3.47, 4.52, -0.0, -0.0, -0.0, -0.0, -0.0, 14.75, 15.2, 16.09, 14.39, 15.27, 14.9, 14.55, 14.16, 14.19, 13.96, 14.47, 15.34, 15.27, 15.18, 14.16, 14.11, 13.59, 12.96, 11.62, 11.62, 12.07, -10.73, -10.28, -8.8, -9.39, -10.28, -10.28, -10.18, -11.62, -10.0, -5.0, -3.53, -3.11, -3.11, -5.69, -6.95, -7.59, -4.8, -4.4, -0.0, 13.41, 13.86, 12.52, -11.62, -0.0, 10.55, 13.2, 2.7, -3.18, -0.0, -0.0, -1.43, -1.0, -1.0, -0.0, 2.53, 4.81, 7.12, 8.84, 10.01, 10.25, 8.22, 8.18, 11.18, 4.8, 7.27, 9.33, 9.54, 9.83, 10.28, 12.14, 7.93, 3.96, 9.48, 11.6, 10.73, 8.94, 7.6, 9.26, 6.8, 5.59, 5.53, 7.59, 8.22, 8.8, 7.6, -0.0, -0.0, -0.0, 3.47, 6.4, 6.4, 6.4, 4.52, -0.0, -0.0, -0.0, -0.0, -0.0, -0.0, 16.09, 16.54, 16.54, 16.54, 15.78, 15.49, 15.08, 14.84, 15.27, 15.27, 15.71, 16.15, 15.97, 15.65, 15.2, 14.75, 13.86, 11.2, 12.07, 10.73, 10.28, -9.83, 10.28, 9.39, -11.18, -10.28, -10.73, 11.62, -7.59, -4.8, -2.97, -2.83, -4.0, -3.8, -8.0, -8.8, -7.27, 10.28, 9.83, 8.49, 8.49, -7.2, -2.69, 9.21, 12.3, 8.01, -1.39, -2.28, -4.15, -4.15, -4.15, -3.98, -2.19, -0.0, 3.98, 7.44, 8.22, 9.69, 11.8, 10.47, 10.28, 6.95, 5.29, 8.03, 9.75, 11.18, 10.0, 9.58, 8.38, 6.44, 2.02, 4.65, 7.44, 7.9, 8.91, 8.4, 8.8, 7.6, 5.95, 6.18, 7.28, 8.06, 7.2, 7.2, 6.2, -0.0, -0.0, 4.52, 3.47, 6.4, 6.4, 6.4, 3.47, 4.52, -0.0, -0.0, -0.0, -0.0, -0.0, 16.09, 16.54, 16.99, 16.99, 16.31, 15.93, 15.47, 15.61, 15.69, 16.15, 16.15, 16.41, 16.09, 15.65, 15.2, 14.9, 14.75, 13.15, 11.62, 10.28, 8.94, 9.83, 9.83, 11.18, 10.73, 10.28, 10.73, -0.0, -4.4, -6.64, -2.69, -2.69, -3.6, -3.6, -6.01, 8.49, 8.49, 8.49, 8.49, -0.0, 8.05, 0.0, 6.95, 11.62, 6.97, -0.0, -3.39, -7.27, -6.95, -8.4, -8.4, -7.07, -0.0, 3.25, 6.87, 8.18, 10.6, 12.52, 11.03, 11.18, 5.0, 6.7, 10.69, 12.5, 13.15, 12.96, 8.85, 7.24, 5.2, 2.6, 0.0, 1.69, 2.39, 4.0, 4.6, 6.01, 5.06, 5.84, 6.82, 7.58, 7.44, 6.79, 6.79, 9.8, 6.2, 4.52, 4.38, 4.38, 6.4, 6.4, 6.6, 6.4, 6.4, 3.58, -0.0, -0.0, -0.0, -0.0, 11.06, 15.65, 16.54, 16.99, 16.99, 16.54, 15.93, 15.93, 15.61, 15.71, 15.71, 16.09, 16.09, 16.09, 16.54, 16.66, 16.66, 15.61, 10.12, 0.0, 8.94, 9.39, 10.73, 10.28, 10.28, 10.73, 8.94, -6.95, -2.69, -4.2, -4.0, -4.0, -0.0, -0.0, -0.0, -0.0, -0.0, -0.0, -0.0, -0.0, -0.0, 6.95, -0.0, -0.0, -0.0, 7.9, -0.0, -4.4, -4.2, -6.64, -5.69, -6.32, -7.6, 4.2, 9.2, 12.9, 11.95, 12.18, 9.97, 3.68, 1.29, 7.43, 11.06, 12.76, 13.13, 13.19, 13.32, 11.16, 3.04, 0.0, 0.0, 0.0, 0.0, 2.33, 4.5, 6.11, 5.69, 4.75, 6.39, 7.74, 6.64, 6.01, 6.01, 12.39, 9.8, 4.52, 4.52, 4.38, 4.38, 6.4, 6.4, 6.6, 5.48, 5.48, 3.69, -0.0, -0.0, 6.8, 13.59, 14.84, 16.09, 16.54, 16.54, 16.09, 16.09, 15.65, 14.61, 15.18, 15.61, 16.54, 16.54, 16.54, 17.43, 16.91, 17.35, 15.99, 14.39, 8.85, 6.01, 0.0, 0.0, 0.0, 7.27, 0.0, 0.0, -8.49, -3.8, -0.0, -0.0, -0.0, -0.0, -0.0, -0.0, -0.0, -0.0, -0.0, -0.0, -0.0, -0.0, -0.0, -0.0, -0.0, 7.9, 7.9, 4.6, -0.0, -5.21, -5.21, -2.69, -3.6, -6.01, 3.11, 10.27, 15.39, 13.38, 12.9, 14.47, 3.9, 2.28, 8.97, 13.1, 13.87, 13.99, 13.19, 13.35, 13.75, -5.6, -5.0, 0.0, 0.0, 0.0, 0.94, 3.25, 4.88, 5.31, 4.42, 5.59, 6.83, 6.48, 5.63, 5.63, 13.15, 9.8, 7.69, 7.93, 7.69, 7.69, 7.93, 6.4, 6.6, 6.6, 6.6, 3.69, 3.79, 4.95, 6.8, 15.19, 13.99, 14.84, 15.18, 15.2, 15.65, 16.09, 15.65, 16.54, 14.9, 16.54, 13.44, 16.99, 17.43, 16.09, 15.59, 16.96, 16.96, 15.59, 13.99, 10.41, 6.95, 5.21, 4.4, 5.0, 4.6, 0.0, 10.28, -0.0, -0.0, -0.0, -0.0, -0.0, -0.0, -0.0, -0.0, -0.0, -0.0, -0.0, -0.0, -0.0, -0.0, -0.0, 7.9, 10.0, 9.6, 7.27, -0.0, -3.8, -4.6, -4.37, -3.8, 0.0, 4.4, 10.04, 13.79, 15.41, 18.16, 18.44, 17.68, 16.22, 15.65, 15.2, 15.53, 15.41, 14.18, 14.11, 13.15, -3.96, 0.0, 0.0, 0.0, 1.84, 1.07, 1.07, 2.39, 4.98, 4.96, 5.04, 5.06, 5.46, 5.45, 5.45, 13.15, 11.53, 9.8, 7.69, 7.69, 7.69, 7.93, 7.93, 8.18, 6.6, 6.6, 6.8, 8.68, 11.06, 11.06, 13.59, 13.19, 13.99, 14.84, 14.42, 16.99, 16.09, 16.09, 17.43, 16.54, 16.54, 16.54, 16.09, 16.99, 16.99, 17.43, 17.43, 16.54, 16.54, 15.19, 13.59, 11.6, 10.4, 9.2, 7.6, 8.67, 9.39, 8.4, 6.64, 6.32, 7.59, 6.95, -0.0, -0.0, -0.0, -0.0, -0.0, -0.0, -0.0, -0.0, -0.0, -0.0, 6.95, 9.75, 10.73, 10.28, -0.0, -4.4, -5.21, -3.8, -5.1, -6.32, -0.0, 10.28, 11.62, 13.01, 15.18, 18.74, 19.66, 18.78, 16.0, 11.96, 11.58, 14.93, 15.07, 15.17, 15.2, 13.99, -9.48, 0.0, 3.53, 7.27, 7.27, 1.84, 0.0, 0.97, 3.97, 5.57, 4.07, 3.61, 5.29, 4.99, 4.99, 13.15, 11.53, 11.53, 9.8, 9.8, 9.8, 9.8, 7.93, 8.18, 8.43, 8.18, 8.43, 11.06, 11.06, 13.99, 13.99, 13.19, 13.99, 12.58, 15.2, 16.12, 15.69, 15.69, 16.09, 16.99, 16.99, 16.09, 16.99, 17.43, 17.88, 17.88, 17.43, 17.43, 16.91, 16.48, 16.05, 13.7, 12.04, 11.4, 10.14, 9.39, 9.83, 9.7, 9.33, 8.72, 9.6, 6.95, 6.95, 6.64, -0.0, -0.0, -0.0, -0.0, -0.0, -0.0, -0.0, 2.49, 4.6, 10.73, 9.83, 9.83, -6.95, -6.95, -6.95, -6.32, -6.32, -6.64, -0.0, 7.59, 8.22, 9.69, 12.79, 17.43, 19.79, 18.67, 14.13, 9.07, 10.19, 11.38, 12.86, 14.73, 15.46, 15.2, 14.3, 13.41, 11.62, 10.73, 9.83, 8.55, 3.25, 1.68, 3.96, 4.65, 3.45, 2.7, 3.49, 3.81, 3.81, 13.15, 11.53, 11.53, 9.8, 9.8, 9.8, 8.31, 10.12, 10.43, 10.75, 8.43, 10.75, 10.75, 13.02, 14.84, 14.84, 14.42, 14.75, 14.75, 16.54, 16.66, 16.22, 15.78, 16.09, 16.99, 17.88, 17.43, 16.54, 16.54, 16.99, 17.43, 17.43, 17.43, 17.43, 16.99, 16.66, 15.34, 13.67, 12.35, 11.02, 10.28, 9.83, 9.39, 9.26, 8.82, 7.47, 9.2, 6.95, 6.64, -0.0, -0.0, -0.0, -0.0, -0.0, -0.0, -0.0, 2.39, 2.6, -0.0, 9.83, -8.0, -7.81, -6.64, -5.21, -5.21, -2.97, -4.2, -0.0, 3.25, -0.0, 3.32, 9.06, 15.39, 17.7, 7.24, 6.09, 7.69, 8.5, 8.74, 8.86, 11.25, 13.39, 14.9, 14.3, 13.86, 11.62, 10.28, 6.64, 6.01, 7.9, 5.0, 3.68, 3.68, 4.0, 2.69, 3.15, 2.83, 2.83, 13.15, 13.15, 13.44, 12.39, 9.8, 9.8, 8.58, 8.58, 10.43, 10.75, 10.75, 12.65, 13.02, 13.02, 13.02, 14.84, 14.42, 13.99, 15.2, 16.54, 16.66, 15.78, 14.9, 15.2, 16.54, 17.43, 17.88, 17.43, 16.99, 16.09, 16.54, 16.54, 16.54, 16.54, 16.54, 16.54, 16.09, 14.75, 12.96, 11.62, 10.73, 10.28, 9.83, 8.82, 7.94, 7.45, 9.83, 9.39, 8.94, -0.0, -0.0, -0.0, -0.0, -0.0, -0.0, -0.0, -0.0, -0.0, -0.0, -0.0, -8.0, -8.0, -6.64, -2.83, -2.17, -0.0, -0.0, -0.0, -0.0, -4.2, -7.9, 3.96, 18.21, 16.82, 0.0, 0.0, 3.28, 6.42, 7.15, 7.46, 8.06, 10.12, 11.88, 12.74, 12.39, 10.04, 5.7, 5.86, 6.58, 8.22, 8.85, 11.18, 7.27, 6.32, 8.49, 4.71, 2.06, 2.06, 13.86, 13.86, 13.44, 12.39, 9.8, 8.31, 8.31, 8.58, 8.85, 10.75, 10.75, 11.06, 13.02, 13.02, 13.02, 13.99, 15.18, 14.31, 15.18, 16.09, 16.54, 16.99, 16.09, 14.75, 15.2, 16.54, 17.43, 17.43, 17.43, 16.99, 16.09, 16.09, 16.09, 16.09, 16.09, 16.09, 16.09, 15.2, 13.41, 11.62, 10.28, 9.83, 10.28, 10.14, 8.82, 7.45, 9.83, 9.39, 8.94, 6.32, 6.32, 6.01, -0.0, -0.0, -0.0, -0.0, -0.0, -2.83, -0.0, 4.6, -0.0, -8.49, -6.01, -0.0, -2.17, -0.0, 1.84, 3.11, 2.83, -0.0, -9.2, 14.4, 17.88, 18.74, 16.91, 0.0, 0.0, 2.72, 5.48, 4.95, 5.83, 7.1, 9.27, 9.48, 8.44, 5.77, 4.23, 4.4, 2.97, 9.39, 9.39, 6.64, 8.4, 8.94, 8.49, 6.01, 4.96, 4.96, 13.86, 13.86, 13.86, 12.39, 9.8, 8.31, 6.2, 8.58, 8.85, 10.75, 10.75, 10.75, 13.02, 13.02, 13.99, 13.99, 13.99, 14.75, 14.75, 15.61, 16.09, 16.99, 16.99, 16.54, 15.65, 15.65, 16.99, 17.43, 17.43, 16.99, 16.99, 16.54, 15.65, 15.65, 16.09, 16.09, 16.09, 15.65, 14.3, 12.07, 10.28, 9.83, 9.83, 10.14, 9.7, 9.26, 7.94, 8.33, 8.77, 9.21, 8.0, 9.2, 6.01, -0.0, -0.0, -0.0, -0.0, -3.4, -0.0, 9.39, 9.83, 8.49, 8.94, -0.0, -0.0, -0.0, 1.84, 1.84, -0.0, 0.0, 3.53, 10.79, 16.49, 17.79, 18.85, 18.8, 18.33, 7.6, 4.66, 3.82, 4.91, 6.09, 7.54, 8.94, 7.11, 4.4, 2.02, -2.83, -8.94, -8.94, -8.8, 9.83, 9.83, 9.39, 8.48, 7.44, 6.32, 6.32, 13.86, 13.86, 13.15, 11.53, 9.8, 8.31, 5.15, 8.58, 8.85, 8.85, 10.75, 10.75, 11.06, 13.99, 13.99, 13.99, 13.99, 15.18, 15.18, 15.34, 15.34, 16.09, 16.99, 16.99, 16.54, 16.09, 16.09, 16.99, 17.43, 17.43, 16.99, 16.99, 16.54, 16.54, 16.09, 16.09, 16.09, 16.09, 15.65, 13.41, 11.18, 10.28, 9.83, 9.83, 10.28, 10.28, 9.7, 8.38, 8.82, 9.26, 9.21, 8.33, 8.8, 6.01, 6.01, -0.0, -0.0, -0.0, 8.05, 8.94, 9.83, 10.28, 6.32, -0.0, -0.0, -0.0, -0.0, -0.0, -4.6, 0.0, 2.1, 10.12, 13.28, 16.96, 18.26, 18.8, 18.8, 18.72, 7.2, 3.29, 3.68, 5.34, 7.15, 7.68, 4.75, 0.0, -2.97, -8.49, -8.94, -8.24, -7.81, 0.0, 7.59, 8.55, 9.54, 8.91, 8.91, 8.91, 13.86, 13.86, 13.15, 7.69, 6.2, 5.15, 5.15, 7.13, 8.58, 8.85, 12.16, 12.16, 12.52, 13.59, 13.99, 13.99, 13.99, 13.99, 15.34, 15.34, 15.34, 15.34, 16.09, 16.54, 16.54, 16.54, 16.09, 16.54, 16.99, 16.99, 16.99, 16.99, 16.99, 16.99, 16.54, 16.54, 16.54, 16.54, 16.54, 15.65, 13.86, 12.07, 10.73, 9.83, 10.28, 10.28, 10.28, 9.39, 8.94, 8.94, 8.77, 8.77, 7.81, 7.37, 7.2, 3.4, -0.0, -5.37, -5.06, 7.6, 9.39, 9.39, 7.59, 2.17, -0.0, -0.0, -0.0, -0.0, -6.95, 0.0, 2.71, 8.22, 11.62, 13.86, 14.31, 15.11, 19.33, 17.97, 11.38, 1.05, 2.81, 4.66, 5.31, 5.36, 1.64, 0.0, -6.95, -8.49, -8.49, -8.48, -7.44, -3.25, 8.22, 6.45, 9.3, 8.93, 9.6, 9.6, 13.86, 13.86, 9.8, 7.69, 6.2, 6.2, 7.13, 8.31, 8.58, 8.58, 11.8, 12.16, 12.16, 12.16, 13.59, 13.59, 13.99, 14.53, 15.34, 15.34, 15.34, 15.34, 15.34, 15.65, 16.09, 16.09, 16.09, 16.09, 16.54, 16.54, 16.54, 16.54, 16.99, 16.99, 16.99, 16.54, 16.54, 16.99, 16.99, 16.09, 14.75, 12.96, 11.18, 9.83, 10.28, 9.83, 10.28, 9.83, 8.94, 8.94, 8.94, 8.49, 8.24, 7.37, 6.79, 6.8, -0.0, -5.37, -6.4, -7.6, -8.05, 8.94, 4.4, 2.97, 2.28, 3.53, -0.0, 10.28, -9.83, 0.0, 3.53, 8.53, 10.19, 11.2, 12.71, 14.3, 17.43, 16.88, 13.86, 0.0, 0.97, 4.11, 5.9, 4.58, 1.71, -5.4, -8.55, -7.6, -9.39, -9.83, -9.2, -10.0, 3.82, 6.94, 6.94, 8.53, 8.22, 8.22, 13.86, 13.86, 9.8, 7.69, 6.2, 6.2, 8.31, 8.58, 8.58, 8.58, 10.43, 12.16, 12.52, 12.52, 12.52, 13.59, 14.11, 14.11, 14.11, 14.9, 15.34, 15.34, 15.34, 15.34, 15.65, 15.43, 15.43, 15.87, 16.31, 16.54, 16.54, 16.54, 16.54, 16.54, 16.54, 16.54, 16.54, 16.99, 16.99, 16.54, 15.65, 13.41, 11.62, 9.83, 9.39, 9.83, 10.73, 11.62, 11.62, 9.39, 8.94, 8.94, 8.49, 8.05, 6.71, 6.71, 7.6, 7.6, -6.4, -7.6, -7.6, -8.94, 9.39, -0.0, 3.25, 2.49, -0.0, -0.0, -6.95, -7.27, 5.0, 11.2, 11.44, 9.76, 9.62, 13.34, 15.01, 14.75, 13.86, 3.82, 0.0, 3.41, 5.9, 5.02, 1.98, -3.39, -8.8, -7.27, 0.0, -11.18, -11.18, -11.62, -12.07, 0.0, 4.24, 7.19, 8.53, 8.53, 13.15, 13.15, 9.8, 7.69, 6.2, 6.2, 8.31, 8.58, 8.58, 8.58, 10.12, 10.75, 12.16, 12.52, 12.87, 13.42, 14.11, 14.11, 14.11, 14.9, 15.34, 15.34, 15.43, 15.43, 15.34, 15.34, 14.9, 15.34, 15.87, 16.09, 16.09, 16.09, 16.09, 16.09, 16.54, 16.54, 16.54, 16.54, 16.99, 16.99, 16.09, 14.3, 12.52, 9.83, 8.05, 9.83, 12.07, 13.41, 13.41, 12.52, 11.18, 8.94, 8.49, 7.6, 6.71, 6.71, 7.15, 7.15, -7.6, -7.15, -7.15, -6.32, 8.49, 9.39, -0.0, -0.0, -0.0, 4.8, 9.39, 0.0, 3.53, 10.35, 12.75, 13.32, 12.37, 13.07, 13.85, 12.65, 13.02, 12.39, 3.25, 3.14, 5.63, 6.4, 5.36, 4.24, 9.48, 9.17, 8.85, 12.52, -10.8, -5.6, -0.0, 0.0, 5.8, 7.19, 8.85, 8.85, 13.01, 13.01, 9.8, 7.69, 6.2, 6.2, 8.31, 8.58, 8.58, 8.85, 10.43, 10.12, 10.75, 12.16, 12.52, 13.42, 14.53, 14.53, 14.53, 14.53, 15.43, 15.43, 15.43, 15.43, 15.34, 15.34, 14.9, 14.47, 14.9, 15.65, 16.09, 15.65, 15.65, 15.65, 16.09, 15.93, 16.54, 16.54, 16.54, 16.99, 16.54, 15.2, 12.96, 10.73, 8.94, 10.28, 12.96, 14.3, 14.3, 13.41, 11.03, 8.91, 6.36, 6.71, 5.81, 5.36, 7.15, 7.6, 7.6, -7.15, -7.15, 0.0, 0.0, -0.0, -0.0, -0.0, -6.01, 9.83, 10.28, 8.55, 1.93, 4.8, 12.14, 14.75, 17.35, 16.22, 14.47, 11.87, 11.44, 13.27, 9.92, 2.34, 5.11, 6.8, 7.88, 9.66, 12.02, 14.75, 13.86, 12.96, -0.0, -0.0, -0.0, 8.85, 11.6, 11.6, 11.87, 11.87, 12.45, 12.45, 10.73, 9.8, 6.2, 8.31, 8.31, 8.58, 8.58, 8.85, 10.43, 10.43, 10.43, 12.52, 12.52, 13.42, 14.53, 14.94, 14.94, 15.27, 15.87, 15.87, 15.43, 15.43, 15.34, 15.34, 14.9, 14.03, 16.09, 14.75, 15.65, 16.09, 16.09, 15.65, 15.65, 15.93, 16.09, 16.54, 16.54, 16.54, 16.54, 15.65, 13.86, 11.18, 10.28, 11.02, 12.96, 14.75, 13.86, 12.14, 9.97, 7.63, 6.79, 6.0, 5.2, 4.66, 5.09, 6.4, 5.37, 0.0, -4.74, 0.0, 8.49, 8.49, -0.0, -0.0, -0.0, 0.0, 8.55, 9.96, 5.46, 0.0, 5.6, 15.2, 20.12, 21.17, 14.03, 8.85, 9.69, 12.65, 13.82, 10.19, 7.4, 11.38, 11.7, 12.45, 14.13, 14.71, 14.03, 12.96, 11.87, 3.96, 3.96, 10.41, 12.52, 12.52, 12.07, 12.07, 12.45, 12.45, 10.73, 9.8, 9.8, 9.8, 8.31, 8.58, 8.58, 8.85, 10.43, 10.43, 10.43, 10.43, 12.52, 13.42, 14.53, 14.84, 14.84, 15.27, 15.87, 15.87, 15.87, 15.43, 14.9, 14.9, 14.9, 14.03, 13.59, 15.65, 14.75, 15.65, 16.09, 16.09, 16.09, 16.09, 16.09, 16.54, 16.54, 16.54, 16.54, 16.09, 14.3, 12.07, 10.73, 11.62, 12.96, 13.86, 13.59, 11.4, 9.11, 8.67, 8.48, 7.63, 6.4, 5.6, 5.51, 5.09, 5.6, 2.8, 0.0, 0.0, 8.94, 8.05, -0.0, -2.54, -0.0, 8.49, 6.95, 9.6, 0.0, -7.59, 0.0, 10.77, 18.91, 25.41, 13.86, -2.93, 2.93, 10.99, 14.23, 15.93, 16.09, 16.54, 16.71, 17.25, 17.25, 15.96, 14.3, 12.96, 11.2, 8.53, 8.53, 10.41, 12.14, 12.52, 11.62, 11.62, 13.23, 13.23, 12.45, 10.73, 11.09, 9.8, 9.8, 10.12, 10.12, 10.43, 10.43, 10.75, 10.43, 10.43, 12.16, 13.99, 14.53, 14.53, 14.84, 15.27, 15.27, 16.31, 15.87, 15.78, 14.9, 14.9, 14.9, 14.47, 14.55, 14.55, 14.47, 14.9, 15.65, 15.65, 16.09, 16.09, 16.09, 16.09, 16.54, 16.54, 16.54, 16.54, 15.2, 12.96, 11.62, 11.62, 12.52, 13.67, 13.67, 11.84, 9.64, 9.11, 9.11, 8.48, 7.63, 6.79, 6.36, 5.94, 5.09, 4.84, 0.0, 0.0, 8.05, -0.0, -3.4, -5.37, -3.6, -8.05, 0.0, 0.0, 9.83, 0.0, 2.93, 8.38, 15.82, 23.42, 19.22, 12.79, 13.41, 12.87, 14.4, 15.57, 16.54, 16.99, 16.99, 17.43, 17.88, 16.09, 13.86, 12.14, 11.09, 10.35, 10.8, 11.71, 12.07, 11.91, 12.07, 12.07, 13.23, 13.23, 12.72, 12.45, 11.09, 11.09, 9.8, 10.12, 10.43, 10.43, 10.75, 10.75, 10.75, 10.43, 10.43, 13.59, 14.11, 14.11, 14.42, 14.84, 15.27, 15.87, 15.87, 15.78, 15.34, 14.9, 14.9, 14.47, 14.47, 14.99, 14.99, 14.99, 14.99, 15.2, 15.65, 15.65, 16.09, 16.09, 16.54, 16.54, 16.54, 16.09, 15.2, 13.41, 12.07, 11.62, 12.52, 13.23, 13.23, 12.71, 10.52, 10.08, 9.11, 8.0, 7.07, 6.32, 5.95, 5.58, 5.21, 4.8, 3.48, 5.69, 8.05, -0.0, -6.01, -7.6, -6.8, -7.6, -8.94, -8.4, -6.95, 0.0, 11.12, 11.16, 13.64, 17.53, 19.49, 17.9, 15.78, 15.65, 13.84, 14.39, 16.22, 16.54, 16.09, 16.09, 16.09, 14.3, 12.47, 11.84, 11.35, 10.84, 11.18, 11.46, 12.07, 12.07, 12.07, 12.07, 13.23, 13.23, 12.72, 12.45, 12.87, 12.39, 11.44, 10.12, 10.43, 10.43, 10.75, 10.75, 10.75, 10.43, 12.27, 13.59, 14.11, 14.11, 14.42, 14.84, 14.84, 15.87, 15.78, 15.78, 15.34, 14.9, 14.9, 14.47, 14.47, 14.9, 14.99, 14.99, 14.75, 14.75, 14.75, 15.2, 15.65, 15.65, 16.09, 16.09, 16.09, 16.09, 15.65, 13.41, 12.07, 11.62, 12.07, 12.79, 13.23, 12.71, 11.4, 10.08, 9.13, 8.4, 7.6, 7.2, 6.8, 5.95, 5.58, 4.84, 4.8, 3.79, 8.05, -5.37, -7.2, -8.94, -5.69, -7.6, -6.32, -8.94, -10.73, 0.0, 13.41, 13.25, 14.25, 15.07, 16.07, 18.0, 20.85, 21.46, 18.33, 12.52, 11.8, 14.3, 13.86, 13.41, 12.96, 12.07, 11.62, 11.14, 11.13, 11.12, 11.53, 11.62, 11.62, 12.07, 12.07, 12.07, 12.83, 12.83, 13.23, 13.23, 12.87, 12.39, 12.79, 10.12, 10.43, 10.43, 10.75, 10.75, 12.65, 12.65, 12.27, 13.19, 14.11, 14.11, 14.11, 14.84, 14.53, 14.53, 15.78, 15.78, 15.34, 14.9, 14.9, 14.47, 14.47, 14.9, 14.9, 15.2, 14.75, 14.75, 14.75, 14.75, 14.75, 15.2, 15.65, 16.09, 16.09, 16.09, 15.2, 12.96, 10.28, 10.73, 11.46, 12.35, 12.04, 12.04, 11.21, 10.38, 9.55, 8.8, 8.0, 7.2, 6.8, 6.8, 5.58, 5.21, 4.84, 3.79, 8.05, -7.6, -8.05, -8.94, -7.2, -6.01, -4.0, -8.94, -9.39, -7.27, 11.2, 14.68, 14.73, 13.82, 14.18, 16.34, 20.28, 22.57, 20.64, 13.19, 6.0, 12.3, 12.52, 12.52, 12.52, 11.18, 11.18, 11.18, 11.62, 11.62, 11.62, 12.07, 12.07, 11.62, 11.95, 11.95, 12.96, 12.96, 13.23, 13.23, 12.87, 12.87, 12.79, 12.79, 10.43, 10.43, 12.65, 13.59, 13.59, 13.59, 13.59, 13.19, 13.19, 14.11, 14.11, 14.53, 14.53, 14.53, 14.53, 15.78, 15.34, 14.9, 14.47, 14.47, 14.47, 14.47, 15.2, 14.75, 14.75, 14.75, 14.75, 14.75, 14.3, 15.2, 15.2, 15.65, 15.65, 16.09, 14.75, 12.07, 9.83, 10.73, 11.46, 11.62, 12.45, 12.04, 11.62, 10.4, 9.6, 8.8, 8.0, 7.6, 6.8, 6.8, 5.58, 5.21, 4.84, 3.79, 0.0, 7.15, 7.6, 8.49, -8.49, -7.2, -6.01, 8.49, -8.94, -10.28, 10.8, 13.82, 17.43, 15.08, 12.99, 14.22, 17.74, 19.86, 18.14, 15.12, 13.57, 11.99, 12.96, 12.96, 12.52, 11.62, 11.62, 11.62, 11.62, 11.62, 11.62, 12.07, 12.07, 12.0, 11.98, 11.95, 12.96, 12.96, 12.79, 13.23, 13.67, 12.87, 12.79, 12.79, 13.19, 13.19, 13.59, 13.59, 13.59, 13.59, 13.59, 13.19, 13.19, 13.7, 14.11, 14.11, 14.53, 14.53, 14.53, 15.34, 15.34, 14.9, 14.47, 14.47, 14.03, 14.03, 14.75, 14.75, 14.75, 14.75, 14.3, 14.75, 14.3, 14.3, 15.2, 15.2, 15.65, 15.65, 14.75, 12.07, 10.73, 12.07, 13.59, 13.28, 12.79, 12.39, 11.6, 10.8, 9.6, 9.2, 8.0, 7.6, 7.2, 6.08, 5.06, 4.74, 4.43, 4.11, 0.0, 0.0, 8.05, 8.05, -7.6, -8.05, -8.05, 8.49, -8.94, -8.0, 8.22, 12.96, 15.46, 16.15, 15.65, 14.53, 15.01, 14.68, 14.64, 14.75, 14.75, 14.3, 13.41, 12.96, 12.96, 11.98, 12.0, 12.07, 11.62, 11.62, 11.62, 12.07, 12.07, 12.01, 12.0, 11.98, 12.96, 12.96, 12.79, 13.23, 13.23, 12.87, 12.87, 12.79, 12.79, 13.19, 13.19, 13.19, 13.59, 13.59, 13.19, 13.19, 13.19, 14.47, 13.7, 14.11, 14.11, 14.11, 14.9, 15.34, 15.34, 15.34, 14.47, 14.03, 14.03, 14.03, 14.3, 14.75, 14.75, 14.75, 14.3, 14.3, 14.3, 13.86, 14.3, 14.75, 14.75, 15.2, 14.03, 12.14, 11.4, 12.58, 14.9, 13.99, 13.19, 12.79, 12.39, 11.2, 9.6, 8.8, 8.0, 6.79, 6.44, 6.08, 5.37, 5.06, 4.74, 3.22, 0.0, 7.15, 7.6, 8.05, -7.6, -8.49, -7.6, 8.05, -8.49, -4.0, 0.0, 10.0, 12.52, 14.95, 18.54, 19.2, 14.95, 9.27, 10.4, 12.52, 13.41, 12.96, 12.96, 12.52, 12.07, 11.91, 11.53, 11.62, 11.62, 11.62, 11.62, 12.02, 12.02, 12.01, 12.0, 12.0, 12.52, 12.52, 12.96, 12.79, 13.23, 12.45, 12.87, 13.28, 13.28, 12.79, 13.19, 13.19, 13.19, 13.19, 13.19, 13.19, 14.31, 14.47, 13.7, 13.7, 14.11, 14.9, 14.9, 14.9, 14.9, 14.9, 14.47, 14.03, 14.03, 13.59, 13.86, 13.86, 14.3, 14.3, 14.3, 13.86, 13.86, 13.41, 13.86, 14.3, 14.3, 14.03, 13.59, 12.27, 11.21, 12.45, 14.47, 14.75, 13.88, 12.39, 11.99, 10.8, 8.8, 8.4, 8.0, 6.79, 6.44, 5.69, 5.69, 5.37, 5.06, 4.74, 2.6, 7.6, 7.6, 7.6, 8.05, 8.05, -0.0, -8.05, -6.01, -2.69, 0.0, 5.46, 10.4, 13.33, 17.36, 21.95, 17.61, 11.45, 0.0, 11.62, 12.07, 12.52, 12.52, 12.07, 11.62, 11.62, 11.62, 11.62, 11.57, 11.57, 11.57, 12.01, 12.01, 12.01, 12.01, 12.01, 12.52, 12.52, 12.83, 12.79, 12.72, 12.72, 12.87, 12.87, 12.87, 13.28, 12.79, 13.19, 13.19, 13.19, 14.31, 14.31, 14.31, 14.31, 14.31, 13.7, 14.9, 14.9, 14.9, 14.9, 14.9, 14.9, 14.47, 14.03, 13.59, 13.59, 13.15, 13.41, 13.41, 13.86, 14.3, 13.41, 13.41, 13.41, 13.41, 13.41, 13.86, 13.59, 13.15, 11.84, 11.4, 12.71, 14.03, 14.03, 13.15, 11.2, 10.8, 10.0, 8.4, 7.81, 7.15, 7.15, 6.44, 4.83, 4.83, 4.83, 4.56, 5.37, 3.72, 0.0, 7.6, 7.6, -0.0, -0.0, -0.0, -7.6, -5.69, -2.69, 0.0, 3.82, 7.15, 9.66, 14.03, 18.6, 20.17, 16.67, 14.24, 14.44, 15.16, 13.67, 12.25, 11.6, 10.35, 10.8, 11.3, 11.56, 11.64, 11.21, 11.64, 12.27, 11.84, 11.84, 11.84, 11.84, 12.52, 12.52, 12.83, 12.79, 12.72, 12.72, 13.15, 13.15, 13.28, 13.28, 13.28, 13.19, 13.19, 14.31, 14.31, 14.31, 14.31, 14.31, 14.31, 14.47, 14.9, 14.9, 14.9, 14.9, 14.9, 14.9, 14.47, 14.03, 13.59, 13.15, 13.15, 13.41, 13.41, 13.41, 13.41, 13.41, 12.96, 13.41, 13.41, 13.41, 13.23, 13.15, 12.71, 11.4, 10.96, 11.84, 12.45, 12.45, 12.45, 11.21, 10.0, 9.2, 8.0, 7.15, 6.79, 6.79, 5.69, 5.69, 4.56, 4.83, 4.83, 5.37, 5.06, 1.98, 0.0, 8.05, -0.0, -5.06, -5.37, -7.6, -6.32, -2.69, 0.0, 3.82, 6.7, 8.73, 12.14, 14.71, 16.62, 16.87, 16.48, 17.95, 19.42, 18.33, 11.9, 8.73, 8.44, 10.37, 9.88, 10.04, 11.2, 10.79, 11.62, 11.21, 11.21, 10.79, 10.79, 10.79, 12.52, 12.52, 12.83, 12.83, 12.3, 12.72, 12.72, 13.15, 13.57, 13.28, 13.28, 13.28, 14.47, 14.31, 14.31, 14.31, 14.31, 14.31, 14.31, 14.31, 14.47, 14.9, 14.9, 14.9, 14.9, 14.9, 14.47, 14.03, 13.59, 13.59, 13.15, 12.96, 12.96, 12.96, 12.96, 12.96, 12.96, 12.96, 13.41, 12.96, 12.71, 12.71, 12.71, 11.4, 10.96, 11.21, 12.04, 12.04, 12.04, 11.21, 10.38, 8.8, 8.0, 6.79, 6.44, 5.69, 5.69, 5.69, 5.37, 4.56, 4.56, 5.37, 5.06, 3.72, 2.6, 8.49, -0.0, -5.06, -7.6, -8.05, -5.69, 0.0, 0.0, 3.11, 7.27, 10.73, 11.03, 12.66, 13.2, 11.2, 12.64, 18.19, 22.1, 19.22, 15.93, 3.1, 6.0, 8.97, 9.17, 9.17, 10.24, 9.58, 9.97, 10.35, 10.16, 10.16, 10.16, 10.16, 12.39, 12.39, 12.83, 12.46, 12.89, 12.89, 12.72, 13.15, 13.15, 13.28, 13.28, 14.03, 14.47, 14.47, 14.31, 14.31, 14.31, 14.31, 14.31, 14.31, 14.47, 14.9, 14.9, 14.9, 14.9, 14.9, 14.47, 14.03, 13.59, 13.59, 13.15, 12.96, 12.96, 12.52, 12.52, 12.52, 12.52, 12.52, 12.96, 12.71, 12.71, 12.71, 12.71, 11.84, 10.38, 11.21, 11.62, 11.62, 11.62, 10.79, 9.96, 7.87, 7.15, 6.79, 6.44, 5.69, 5.69, 5.37, 5.69, 4.56, 4.29, 4.29, 4.74, 4.43, 3.22, 8.49, 7.6, 8.05, -8.49, -8.05, -8.49, -6.01, -4.0, -6.64, 10.28, -0.0, 6.2, 8.85, 9.17, 7.19, 10.12, 16.61, 21.13, 20.23, 17.8, 12.57, 4.38, 6.76, 8.1, 8.53, 8.75, 8.75, 8.41, 9.3, 8.94, 9.48, 9.48, 9.48, 12.39, 12.39, 12.83, 12.46, 12.46, 12.89, 13.32, 13.15, 13.15, 13.15, 14.03, 14.03, 14.03, 14.47, 14.47, 14.31, 14.31, 14.31, 14.31, 13.88, 13.88, 14.31, 14.75, 14.75, 14.75, 14.9, 14.47, 14.03, 13.59, 13.59, 13.41, 13.41, 12.96, 12.52, 12.52, 12.07, 12.07, 12.52, 12.52, 12.27, 12.27, 12.27, 12.27, 11.84, 10.38, 11.21, 11.62, 11.62, 11.21, 10.38, 8.58, 8.23, 7.51, 7.15, 6.44, 5.93, 5.37, 5.37, 5.37, 4.56, 4.56, 4.02, 4.43, 3.79, 2.73, 0.0, 7.6, -7.6, -8.05, -8.05, -8.94, -8.49, -8.94, -9.39, -6.95, -0.0, 3.39, 3.68, 5.4, 6.63, 10.09, 14.18, 17.63, 19.09, 20.83, 19.87, 7.4, 3.41, 8.15, 7.85, 8.53, 7.26, 7.9, 8.93, 9.3, 9.3, 9.3, 9.3, 12.39, 12.39, 12.46, 12.46, 12.46, 12.89, 13.32, 13.15, 13.15, 13.57, 14.03, 14.03, 14.47, 14.47, 14.47, 14.31, 14.31, 14.31, 14.31, 14.31, 14.31, 14.31, 14.75, 14.75, 14.75, 14.31, 14.31, 14.03, 13.59, 13.15, 13.41, 13.41, 12.96, 12.52, 12.52, 12.07, 12.07, 12.07, 12.07, 12.27, 12.27, 12.27, 12.27, 11.84, 10.79, 11.62, 12.04, 11.62, 10.79, 9.6, 8.23, 7.87, 7.87, 7.51, 6.63, 6.28, 5.93, 5.06, 4.47, 3.91, 4.56, 4.02, 4.11, 3.79, 2.73, 0.0, -6.71, -7.15, -7.37, -8.24, -8.48, -9.39, -9.39, -9.39, -8.4, -0.0, -0.0, -0.0, 1.84, 5.77, 10.19, 11.5, 12.79, 16.78, 21.04, 20.97, -3.36, 0.0, 6.45, 9.27, 9.08, 9.67, 10.6, 11.18, 7.9, 10.73, 10.73, 10.73, 12.39, 12.39, 12.46, 12.46, 12.46, 12.89, 13.32, 13.32, 13.15, 14.11, 14.11, 14.03, 14.47, 14.47, 14.47, 14.47, 14.31, 14.31, 14.31, 14.31, 14.31, 14.31, 14.75, 14.75, 14.31, 14.31, 14.31, 13.88, 13.59, 13.86, 13.41, 13.41, 12.96, 12.52, 12.52, 12.07, 12.07, 12.07, 11.84, 11.84, 11.84, 11.84, 11.84, 11.84, 11.21, 11.62, 12.04, 11.62, 10.4, 8.58, 8.23, 7.87, 7.87, 6.32, 6.01, 6.28, 6.28, 5.37, 4.47, 3.68, 3.68, 2.8, 2.6, 3.22, 2.73, 2.8, -4.43, -6.71, -7.15, -8.05, -8.49, -6.32, -6.64, -9.83, -9.39, -6.64, -0.0, -0.0, -0.0, 5.75, 9.27, 10.19, 11.33, 14.53, 20.67, 18.78, -12.0, -4.05, 0.0, 7.27, 9.3, 9.58, 10.84, 11.62, 7.9, 10.73, 10.73, 10.73, 12.39, 12.04, 12.04, 12.46, 12.46, 12.46, 12.89, 13.32, 13.15, 13.57, 14.11, 14.47, 14.47, 14.47, 14.47, 14.47, 14.31, 14.31, 14.31, 14.31, 14.31, 14.31, 14.31, 14.31, 14.31, 14.31, 14.31, 13.88, 13.44, 13.86, 13.41, 13.41, 12.96, 12.96, 12.52, 12.07, 12.07, 11.62, 11.4, 11.4, 11.84, 11.84, 11.84, 10.79, 11.21, 11.62, 11.6, 11.2, 10.8, 8.94, 8.23, 7.87, 7.87, 6.32, 6.01, 6.28, 6.28, 4.75, 4.75, 3.68, 3.68, 3.0, 2.8, 2.4, 2.4, 1.7, -3.0, -5.21, -6.23, -6.94, -7.6, -8.49, -0.0, -0.0, -9.83, -8.4, -4.4, -3.11, -0.0, 6.2, 8.22, 9.67, 11.72, 14.26, 22.7, 20.56, -15.53, -7.9, -1.67, 2.06, 7.51, 8.03, 8.93, 10.0, 10.73, -10.28, -10.28, -10.28, 12.04, 12.04, 12.04, 12.46, 12.46, 12.46, 12.89, 13.32, 13.15, 13.57, 14.11, 14.47, 14.47, 14.47, 14.47, 14.47, 14.31, 14.31, 14.31, 14.31, 14.31, 14.31, 14.31, 14.31, 14.31, 14.31, 13.88, 13.88, 13.86, 13.41, 13.41, 12.96, 12.96, 12.96, 12.52, 12.07, 12.07, 11.62, 11.4, 11.4, 11.4, 11.4, 11.4, 10.79, 10.79, 10.4, 10.8, 10.8, 9.66, 8.94, 8.58, 8.23, 7.87, 6.64, 6.32, 6.01, 5.03, 5.03, 4.75, 3.91, 3.68, 2.49, 2.8, 3.49, 2.6, 1.41, 0.0, -4.74, -5.58, -6.4, -6.32, -5.69, 0.0, 8.94, 9.83, -9.39, -4.2, -0.0, 4.6, 7.59, 9.3, 9.97, 11.71, 19.65, 22.9, 21.01, -13.26, -12.3, -10.73, 0.0, 7.6, 6.01, 5.21, 0.0, -6.95, -8.8, -8.8, -8.8, 12.04, 12.04, 12.04, 12.04, 12.46, 12.46, 12.89, 12.89, 13.15, 13.67, 14.11, 14.11, 14.47, 14.47, 14.47, 14.47, 14.31, 14.31, 14.31, 14.75, 14.31, 14.31, 14.31, 14.31, 14.31, 13.88, 13.88, 14.3, 13.86, 13.41, 13.41, 12.96, 12.96, 12.52, 12.52, 12.07, 12.07, 11.4, 11.4, 10.96, 11.4, 11.4, 11.4, 10.79, 10.38, 10.0, 10.4, 10.4, 9.3, 8.94, 8.58, 8.23, 6.95, 6.95, 6.64, 5.59, 5.31, 5.31, 5.03, 3.91, 3.68, 2.66, 2.49, 3.22, 2.32, 1.23, 1.23, 0.0, -5.06, -5.95, -5.37, -4.71, -2.69, 0.0, 0.0, -8.94, -6.64, -0.0, 9.2, 9.6, 10.18, 10.0, 13.86, 18.78, 21.9, 19.95, -10.87, -7.13, -6.94, -10.0, -10.73, 0.0, 0.0, 0.0, -6.32, -8.91, -8.91, -8.91, 12.04, 12.04, 12.04, 12.04, 12.04, 12.46, 12.89, 13.15, 13.15, 13.67, 13.67, 14.11, 14.47, 14.47, 14.47, 14.47, 14.31, 14.31, 14.31, 14.75, 14.75, 14.31, 14.31, 14.31, 13.88, 13.88, 14.3, 13.86, 13.86, 13.41, 13.41, 12.96, 12.96, 12.52, 12.52, 12.07, 12.07, 11.4, 11.4, 10.96, 10.96, 11.4, 11.4, 10.38, 10.38, 9.6, 9.6, 8.58, 8.58, 8.58, 8.58, 8.23, 6.95, 6.95, 6.14, 5.86, 5.59, 5.59, 5.31, 3.91, 3.91, 2.66, 2.49, 3.45, 3.45, 2.49, 2.49, 2.8, 0.0, 0.0, -5.69, -4.71, -4.96, -2.83, -4.0, -6.01, -6.64, 0.0, 9.2, 10.28, 10.28, 10.73, 12.93, 16.8, 20.36, 18.65, -12.22, -6.94, -8.22, -10.96, -11.18, -10.73, -6.32, -8.94, -6.64, -8.06, -8.06, -8.06, 12.04, 12.04, 12.04, 12.04, 12.04, 12.04, 12.83, 13.23, 13.23, 13.23, 13.67, 14.11, 14.03, 14.47, 14.47, 14.47, 14.31, 14.31, 14.31, 14.75, 14.75, 14.75, 14.75, 14.75, 14.3, 14.3, 14.3, 13.86, 13.86, 13.41, 12.96, 12.96, 12.52, 12.52, 12.52, 12.07, 12.07, 11.4, 10.96, 10.96, 10.96, 10.96, 10.38, 10.38, 9.96, 9.6, 9.6, 8.58, 8.23, 8.23, 8.23, 7.27, 7.27, 6.95, 6.14, 5.86, 5.86, 5.59, 4.37, 4.14, 2.99, 2.82, 2.66, 3.45, 3.45, 2.49, 2.49, 2.49, 3.47, 0.0, -5.37, -6.7, -6.01, -6.32, -8.0, -8.0, -4.2, 0.0, 3.25, 5.7, 7.27, 10.58, 12.01, 14.3, 18.0, 18.66, -13.02, -8.53, -7.27, -10.08, -10.73, -10.73, -9.75, -9.39, -8.4, -8.91, -8.91, -8.91, 12.04, 12.04, 12.04, 12.04, 12.83, 12.83, 12.79, 12.79, 13.23, 13.23, 13.67, 14.11, 14.03, 14.47, 14.47, 14.47, 14.31, 14.31, 14.31, 14.31, 15.2, 15.2, 15.2, 14.75, 14.3, 14.3, 14.3, 13.86, 13.41, 13.41, 12.96, 12.52, 12.52, 12.52, 12.07, 12.07, 11.84, 11.4, 11.4, 10.96, 10.96, 10.96, 10.38, 10.38, 9.6, 9.6, 8.58, 8.23, 8.23, 8.23, 8.23, 7.27, 7.27, 6.14, 6.14, 6.14, 5.86, 5.59, 4.6, 3.8, 2.54, 2.4, 2.82, 2.66, 3.68, 3.68, 2.26, 2.26, 3.0, 0.0, -5.37, -6.32, -6.44, -7.2, -8.06, -8.0, -4.2, 0.0, 0.0, 2.49, 5.7, 8.03, 10.0, 12.58, 16.54, 18.33, 16.09, -11.16, -6.01, -6.79, -8.94, -10.28, -10.73, -10.28, -9.39, -8.91, -8.91, -8.91, 12.39, 12.39, 12.39, 12.39, 12.83, 12.83, 12.79, 13.23, 13.23, 13.23, 13.67, 13.67, 14.03, 14.47, 14.47, 14.47, 14.31, 14.31, 14.75, 15.2, 15.2, 15.2, 15.2, 14.75, 14.3, 14.3, 13.86, 13.86, 13.41, 12.96, 12.96, 12.52, 12.52, 12.07, 12.07, 12.07, 11.4, 11.4, 11.4, 10.96, 10.84, 10.0, 10.0, 9.6, 9.6, 9.6, 8.58, 8.23, 8.23, 8.23, 7.27, 6.95, 7.27, 6.14, 6.14, 6.14, 5.86, 5.86, 4.0, 3.8, 2.69, 2.54, 2.54, 2.82, 3.68, 3.68, 2.26, 2.26, 2.66, 0.0, -2.4, -5.37, -5.95, -6.32, -6.7, -2.83, 0.0, 0.0, 0.0, 0.0, 2.49, 6.42, 9.09, 11.2, 14.69, 17.85, 16.86, -12.79, -7.9, -5.31, -8.72, -9.83, -10.28, -10.28, -9.39, -9.11, -9.11, -9.11, 12.39, 12.39, 12.39, 12.39, 12.83, 12.83, 12.79, 13.23, 13.23, 13.23, 13.67, 13.59, 14.03, 14.03, 14.47, 14.03, 13.88, 14.75, 14.75, 14.75, 15.2, 15.2, 15.2, 15.2, 14.3, 13.86, 13.86, 13.86, 13.41, 12.96, 12.96, 12.52, 12.52, 12.07, 12.07, 11.71, 11.71, 11.28, 11.28, 10.84, 10.0, 10.0, 9.6, 9.6, 9.6, 8.58, 8.23, 8.23, 8.23, 8.23, 7.27, 6.95, 6.14, 6.14, 6.14, 5.86, 5.86, 5.21, 4.2, 4.0, 2.69, 2.69, 2.54, 2.4, 3.4, 3.2, 2.26, 2.4, 2.4, 2.66, 0.0, -4.22, -5.95, -6.4, -4.22, -4.71, -2.83, -2.97, -2.28, 0.0, 0.0, 5.52, 9.09, 10.73, 13.56, 16.58, 16.66, 14.42, -11.16, -6.32, -7.51, -9.64, -9.83, -9.83, -9.39, -9.39, -9.39, -9.39, 12.39, 12.39, 12.39, 12.39, 12.39, 12.79, 12.79, 12.79, 13.23, 13.23, 13.67, 13.59, 14.03, 14.03, 14.03, 14.03, 14.3, 14.3, 14.75, 14.75, 14.75, 15.2, 15.2, 14.75, 14.3, 13.86, 13.86, 13.41, 13.41, 12.96, 12.96, 12.52, 12.07, 12.07, 11.71, 11.71, 11.71, 11.28, 11.28, 11.28, 10.0, 10.0, 10.0, 9.6, 9.6, 8.58, 8.23, 8.23, 8.23, 7.27, 6.95, 6.95, 6.14, 6.14, 6.14, 5.86, 5.86, 4.96, 4.2, 4.0, 2.83, 2.69, 2.54, 2.54, 2.4, 3.4, 3.4, 2.4, 3.6, 3.4, 2.26, 0.0, 6.71, 7.6, -6.4, -4.46, -6.01, -5.21, -5.21, -2.39, 0.0, 4.8, 8.49, 10.73, 12.2, 15.79, 16.29, 14.99, 12.72, -11.45, -8.4, -8.4, -9.64, -9.21, -9.21, -8.94, -8.94, -8.94, 12.39, 12.39, 12.83, 12.83, 12.83, 12.83, 12.96, 12.96, 12.96, 13.23, 13.23, 13.67, 14.03, 14.03, 14.03, 14.3, 14.3, 14.3, 14.3, 14.75, 14.75, 14.75, 14.75, 14.75, 14.3, 13.86, 13.86, 13.41, 13.41, 12.96, 12.96, 12.52, 12.07, 11.71, 11.71, 11.28, 11.28, 11.28, 11.28, 10.0, 10.0, 10.0, 10.0, 9.6, 8.58, 8.58, 8.58, 8.23, 8.23, 7.27, 6.95, 6.95, 6.14, 6.14, 5.86, 5.86, 5.21, 4.96, 4.0, 4.0, 2.83, 2.69, 2.69, 2.54, 2.54, 3.4, 3.4, 3.17, 3.17, 3.77, 3.97, 4.02, 5.81, 7.6, -4.74, -5.37, -6.01, -6.64, -5.21, -2.39, 0.0, 5.95, 8.49, 9.89, 11.6, 14.31, 15.38, 14.72, 13.81, 12.14, -10.73, -9.33, -9.11, -8.67, -8.48, -8.0, -8.0, -8.0, 12.39, 12.39, 12.83, 12.83, 12.83, 12.83, 12.96, 12.96, 12.96, 13.23, 13.23, 13.67, 14.03, 14.03, 14.03, 14.3, 14.3, 14.3, 14.3, 14.75, 14.75, 14.75, 14.75, 14.75, 14.3, 13.86, 13.86, 13.41, 13.41, 12.96, 12.96, 12.52, 12.07, 11.71, 11.71, 11.28, 11.28, 11.28, 11.28, 10.0, 10.0, 10.0, 10.0, 9.6, 8.58, 8.58, 8.58, 8.23, 8.23, 7.27, 6.95, 6.95, 6.14, 6.14, 5.86, 5.86, 5.21, 4.96, 4.0, 4.0, 2.83, 2.69, 2.69, 2.54, 2.54, 3.4, 3.4, 3.17, 3.17, 3.77, 3.97, 4.02, 5.81, 7.6, -4.74, -5.37, -6.32, -6.64, -5.21, -2.39, 0.0, 5.95, 8.49, 9.67, 10.6, 12.52, 14.42, 14.72, 13.41, 12.96, 11.84, 9.39, 9.39, -0.0, -0.0, -0.0, -0.0, -0.0]}, {"header": {"dx": 0.06612293990616946, "dy": 0.0552356325346848, "nx": 98, "ny": 59, "la1": 35.046912555036876, "la2": 31.78801023549047, "lo1": -121.43107172385933, "lo2": -114.95102361305473, "refTime": "2026041014", "parameterCategory": 1, "parameterNumber": 3}, "data": [13.7, 14.55, 14.75, 14.75, 14.75, 14.55, 13.99, 13.7, 13.19, 14.75, 13.86, 11.62, 12.52, 11.18, 10.28, 7.59, 7.59, 4.8, 4.8, 7.27, 8.91, 9.39, 8.67, 8.0, 8.0, 7.51, 6.64, 6.64, 6.98, 7.67, 8.72, 8.67, 8.49, 0.0, -0.0, 6.26, 7.15, 7.15, 7.6, 7.63, 6.01, -0.0, 0.0, -11.6, -6.4, -7.0, -7.8, -7.77, -7.58, -1.78, 5.8, 8.53, 8.53, 8.24, 8.61, 8.61, 8.38, 7.69, 7.69, 6.9, 6.9, 6.51, 7.78, 7.78, 8.44, 8.05, 7.13, 6.64, 5.81, 4.24, 4.24, 3.68, 3.47, 3.32, 3.04, 5.6, 6.94, 13.41, -0.0, -0.0, -0.0, -1.93, -1.84, -4.0, -6.32, -8.94, -6.01, -2.69, -2.69, -3.32, -5.2, -6.7, -7.51, -7.12, -7.12, -6.56, -5.35, -4.99, 13.28, 14.75, 14.75, 14.75, 14.75, 14.75, 14.11, 14.11, 13.19, 14.75, 13.41, 12.96, 11.62, 10.73, 11.62, 11.18, 7.27, 5.2, 4.6, 5.46, 7.27, 10.28, 9.39, 8.48, 7.2, 6.79, 7.15, 7.15, 7.15, 8.0, 7.89, 8.33, 7.21, 4.43, 0.0, 0.0, 0.0, 8.05, 8.49, 8.48, 6.95, 0.0, -11.6, -11.17, -11.7, -9.92, -10.12, -9.12, -4.67, 4.98, 8.22, 8.22, 7.65, 6.67, 8.32, 7.96, 7.69, 7.2, 6.42, 6.42, 6.0, 6.3, 7.78, 8.44, 8.44, 7.78, 6.9, 6.42, 5.62, 4.36, 4.24, 3.44, 3.41, 3.14, 2.13, 2.13, 1.77, 13.41, -0.0, -0.0, -0.0, -1.93, -1.84, -4.0, -6.32, -8.94, -6.01, -2.69, -2.69, -3.32, -5.2, -6.7, -7.51, -7.12, -7.12, -6.56, -5.35, -4.99, 13.28, 14.75, 14.75, 14.75, 14.75, 14.75, 14.9, 14.11, 13.59, 14.3, 12.52, 10.28, 11.62, 11.62, 10.73, 10.73, 7.9, 5.0, 3.53, 3.53, 2.39, 4.8, 10.0, 10.28, 7.44, 6.79, 7.15, 6.32, 6.32, 8.67, 8.05, 7.01, 6.94, 5.37, 2.12, 0.0, 0.0, 0.0, 9.39, 10.28, -11.62, -13.44, -14.39, -14.55, -15.74, -14.22, -9.98, -3.01, 4.98, 6.87, 7.27, 6.97, 6.7, 7.51, 7.68, 8.83, 6.9, 6.42, 6.42, 5.55, 6.0, 6.87, 8.44, 9.84, 9.84, 8.54, 7.43, 6.96, 5.43, 5.11, 4.24, 3.81, 2.2, 1.48, 0.0, 0.0, 0.0, 4.52, -0.0, -2.63, -1.69, -1.84, -3.32, -4.6, -5.36, -8.48, -7.63, -4.71, -4.44, -5.0, -6.88, -8.31, -8.66, -8.18, -6.7, -5.0, -3.11, -2.28, 13.88, 14.3, 14.75, 14.75, 14.75, 14.75, 14.9, 13.59, 13.19, 13.15, 12.07, 10.73, 12.07, 11.18, 7.9, 7.9, 11.62, 8.53, 5.4, 3.53, 3.53, 3.25, 5.0, 10.4, 10.73, 9.33, 6.79, 6.32, 6.32, 7.07, 8.49, 8.94, 8.94, 7.44, 4.96, 2.28, 2.39, 0.0, -3.68, -6.0, -13.39, -16.1, -15.99, -14.08, -12.33, -5.23, 0.0, 5.0, 5.98, 5.92, 6.16, 6.63, 6.63, 7.28, 8.15, 7.78, 6.67, 5.55, 5.55, 4.58, 4.81, 7.54, 10.19, 10.19, 10.01, 9.42, 8.61, 7.51, 7.25, 6.2, 5.18, 3.8, 1.23, 0.0, -2.93, -5.4, -3.32, -3.25, -11.06, -4.24, -3.11, -1.93, -4.6, -4.71, -3.6, -6.32, -8.94, -6.01, -5.76, -7.49, -8.29, -9.11, -8.05, -5.64, 0.0, 1.62, 0.0, -1.94, 13.88, 14.3, 14.75, 14.75, 14.75, 14.75, 14.75, 14.75, 14.31, 13.15, 12.07, 10.73, 11.62, 11.18, 7.59, 8.22, 11.62, 12.07, 8.53, 5.4, 5.6, 4.8, 9.6, 11.62, 10.73, 10.6, 8.18, 6.64, 5.21, 6.01, 8.48, 9.33, 11.03, 10.4, 2.71, 2.19, 0.0, 0.0, -3.07, -11.0, -13.59, -7.8, -3.69, -2.63, 0.0, 3.82, 5.77, 5.54, 6.16, 6.4, 6.21, 6.21, 6.21, 8.01, 7.28, 7.19, 5.8, 5.55, 4.24, 4.58, 5.8, 10.79, 11.2, 10.8, 10.41, 9.88, 8.32, 8.85, 8.05, 7.74, 6.47, 5.36, 3.16, 0.0, -6.94, -10.0, -9.3, -9.67, -14.3, -6.88, -3.87, -4.83, -4.37, -4.21, -3.77, -7.6, -6.98, -6.53, -8.66, -9.77, -8.99, -8.31, -6.21, 9.6, 9.11, 2.97, -0.81, -2.47, 13.88, 14.3, 14.3, 14.75, 14.75, 14.75, 15.2, 14.31, 13.99, 13.15, 12.07, 10.28, 11.18, 10.73, 7.9, -0.0, -0.0, 0.0, -0.0, -0.0, -0.0, -0.0, 0.0, 12.96, 10.8, 10.8, 8.22, 6.2, 3.39, 3.39, 6.64, 9.39, 6.95, 0.0, 0.0, 0.0, 0.0, 0.0, 0.0, -5.94, -14.39, 0.0, 3.04, 3.96, 4.93, 6.21, 6.4, 5.4, 5.99, 5.99, 6.45, 6.7, 6.7, 6.94, 6.43, 4.81, 4.43, 3.41, 3.25, 3.25, 7.19, 11.87, 11.45, 11.21, 11.2, 10.25, 9.36, 8.61, 8.38, 6.88, 5.62, 5.67, 5.49, 4.86, 0.0, -9.8, -10.73, -10.73, -10.28, -6.21, -6.01, -7.44, -6.7, -5.84, -6.99, -8.49, -9.3, -10.12, -10.65, -10.31, -9.67, -8.15, 11.62, 8.33, 8.91, 0.0, -3.25, -4.3, 13.88, 14.3, 14.3, 14.75, 14.75, 14.75, 14.75, 14.31, 13.57, 13.15, 12.07, 8.8, 10.73, 0.0, -0.0, -0.0, -0.0, 0.0, 0.0, 0.0, -0.0, -10.12, -14.75, -15.65, 0.0, 0.0, 0.0, 0.0, 0.0, 3.39, 7.59, 8.91, 8.8, 0.0, 0.0, -2.72, 0.0, 0.0, 0.0, 9.48, -0.0, 0.0, 9.48, 4.24, 8.85, 8.3, 8.24, 7.51, 7.02, 6.44, 6.21, 5.98, 5.6, 4.93, 3.44, 2.81, 2.54, 1.29, 1.08, 2.81, 10.01, 11.95, 11.35, 11.45, 10.55, 9.88, 8.91, 7.78, 6.67, 5.62, 4.13, 4.13, 3.91, 3.69, 2.34, 0.0, -12.39, -10.28, -9.83, -9.64, -8.37, -8.33, -9.34, -9.77, -10.73, -11.09, -12.47, -12.22, -11.06, -9.8, -9.77, -8.85, 7.89, 7.89, 6.32, -3.14, -4.68, -5.2, 13.86, 14.3, 14.3, 14.3, 14.75, 14.75, 14.75, 13.99, 13.57, 12.72, 11.18, 8.8, 10.28, 11.18, 0.0, -0.0, -0.0, 0.0, 0.0, 0.0, 13.41, 13.41, 0.0, -15.65, -13.59, -13.59, -11.06, -11.38, -14.75, 0.0, 8.53, 5.4, 0.0, 0.0, -2.19, -4.65, -4.81, -1.84, 0.0, 0.0, -0.0, -0.0, -0.0, 0.0, 14.39, 11.44, 8.82, 8.53, 8.53, 9.17, 5.2, 5.4, 3.96, 3.44, 1.77, 0.0, 0.0, 0.0, 0.0, 2.93, 11.4, 11.18, 11.02, 10.68, 9.27, 9.02, 7.69, 5.27, 2.37, 1.9, 1.61, 1.66, 0.86, 0.0, 0.0, 0.0, 0.0, 0.0, -6.94, -10.12, -14.3, -12.07, -9.83, -10.62, -11.66, -11.99, -12.33, -11.9, -10.58, -9.42, -10.0, 6.32, 6.8, 8.49, 0.0, -3.8, -5.51, -5.86, 13.86, 14.3, 14.3, 14.3, 14.75, 14.75, 13.99, 13.99, 11.9, 11.6, 11.62, 11.62, 12.96, 12.96, 12.52, 0.0, 0.0, 0.0, 0.0, 0.0, 13.41, 13.41, 13.86, 0.0, -12.96, -7.9, -6.95, -13.86, -15.65, 0.0, -6.2, -6.8, -4.81, -4.38, -2.45, -2.28, -6.2, -5.0, -2.49, 0.0, -0.0, -0.0, -0.0, -0.0, 11.62, 11.18, 11.2, 9.17, 8.32, 8.32, 8.59, 7.54, 3.82, 1.71, 0.0, -1.64, -3.19, -2.82, 0.0, 9.67, 11.02, 10.62, 10.14, 9.97, 8.66, 7.1, 5.63, 2.54, 0.0, 0.0, 0.0, 0.0, -0.84, -0.92, -1.19, -3.25, -2.82, -2.37, -3.36, -6.19, -11.7, -14.25, -9.81, -9.89, -10.6, -11.06, -11.3, -10.28, -8.58, -7.87, 7.15, 5.94, 6.0, -8.05, -4.37, -5.52, -6.33, -6.57, 13.86, 13.86, 14.3, 14.3, 14.75, 14.75, 13.99, 13.99, 11.9, 9.17, 11.2, 12.96, 10.8, 11.99, 13.86, 0.0, -14.3, -14.75, -14.75, -9.48, -0.0, 0.0, 0.0, 0.0, 0.0, 0.0, 0.0, -0.0, -14.75, -10.12, -8.18, -11.7, -11.06, -9.8, -5.4, -3.53, -2.6, -4.2, -5.2, -12.96, -9.17, -7.19, -3.68, -4.6, -0.0, 11.18, 9.67, 8.53, 9.17, 9.17, 9.36, 8.53, 6.97, 5.77, 1.64, 0.0, -4.32, -6.97, 0.0, 11.62, 11.18, 10.23, 11.18, 11.53, 10.12, 7.69, 5.63, 3.41, -1.2, -4.32, -2.81, -2.33, -2.49, -2.89, -3.47, -6.3, -7.65, -6.24, -4.48, -4.53, -7.21, -11.7, -13.09, -7.71, -8.3, -8.4, -8.67, -8.03, -7.9, -6.32, 0.0, 0.0, -6.71, -7.37, -6.45, -7.08, -7.24, -5.46, 13.86, 13.44, 13.88, 13.99, 14.75, 14.75, 13.99, 13.99, 13.57, 9.48, 9.17, 13.86, 13.86, 12.39, 10.12, 0.0, 0.0, -11.06, -13.99, -14.13, -12.33, 0.0, 0.0, 0.0, 0.0, -0.0, -0.0, -0.0, 0.0, -9.8, -5.8, 0.0, 0.0, 0.0, -11.18, -3.82, 0.0, 0.0, -12.07, -13.86, -13.57, -11.99, -11.62, 0.0, 10.73, 10.28, 10.18, 10.0, 9.58, 9.7, 9.97, 10.04, 9.34, 8.64, 8.02, 7.9, 7.44, 0.0, -0.0, 11.18, 11.18, 11.02, 13.15, 13.19, 13.48, 12.27, 9.5, 7.69, 1.77, -4.75, -5.08, -3.81, -3.93, -5.5, -5.73, -7.95, -9.17, -8.53, -7.36, -6.0, -4.81, -8.93, -10.75, -10.37, -6.32, -5.06, -6.01, -5.63, -3.11, 0.0, -3.8, -9.75, -8.49, -6.45, -7.06, -8.12, -6.83, -8.49, 13.86, 13.44, 13.88, 14.31, 14.75, 14.75, 14.75, 13.99, 13.57, 11.99, 6.0, 9.8, 14.75, 14.3, 6.0, 3.96, 0.0, 0.0, -3.16, 0.0, 2.34, 4.42, 4.3, 5.09, 6.0, 9.17, 12.52, 8.05, 11.18, 0.0, 0.0, 0.0, 11.62, -0.0, 0.0, -10.28, 0.0, 0.0, -8.85, -12.72, -9.8, 0.0, 12.07, 11.18, 10.28, 9.39, 10.73, 10.73, 10.58, 10.58, 10.52, 10.73, 10.23, 11.2, 11.34, 11.04, 11.88, 9.5, 8.85, 7.9, 10.25, 12.79, 14.13, 14.4, 14.58, 14.42, 13.81, 12.5, 10.36, 7.79, 3.14, 1.25, 0.0, -4.1, -8.1, -8.59, -9.17, -8.85, -8.85, -6.0, 0.0, 11.99, 0.0, -4.66, 0.0, 0.0, -2.17, 0.0, 0.0, 0.0, -3.11, -8.93, -8.33, -7.31, -8.06, -7.9, -6.95, -0.0, 13.86, 13.44, 13.88, 13.19, 14.31, 14.75, 14.75, 14.3, 14.3, 12.39, 9.8, 10.12, -0.0, 0.0, 11.06, 6.8, 3.47, 2.63, 2.13, 1.9, 2.91, 2.91, 3.85, 2.63, 3.25, 3.68, 4.24, 6.0, 6.7, 8.8, 0.0, 0.0, -0.0, -0.0, 10.28, 6.95, -0.0, -0.0, -5.2, -5.4, -0.0, 11.2, 12.07, 10.28, 9.33, 8.67, 9.33, 9.75, 9.83, 9.83, 8.94, 8.82, 9.03, 9.21, 11.03, 11.09, 10.94, 11.06, 5.2, 7.63, 11.71, 13.36, 13.63, 13.41, 13.86, 14.27, 14.21, 14.47, 13.02, 12.65, 11.6, 10.12, 8.32, 6.71, 0.0, -8.85, -9.17, 0.0, 0.0, 3.82, 7.59, 5.2, 0.0, -11.99, -5.6, -3.04, -2.1, 0.0, 0.0, 0.0, -1.75, -5.36, -6.8, -7.37, -8.38, -8.53, -7.27, -0.0, 13.86, 13.86, 13.44, 12.79, 13.19, 13.88, 13.57, 14.3, 14.3, 14.3, 14.3, 14.3, 0.0, 0.0, 0.0, 7.2, 5.09, 2.98, 2.43, 2.02, 1.77, 3.1, 2.89, 3.07, 3.39, 3.79, 2.02, 2.35, 2.72, 0.0, 0.0, 0.0, 0.0, -0.0, -0.0, 4.4, -0.0, -0.0, -0.0, -3.39, -0.0, 5.0, 10.0, 10.6, 9.33, 9.33, 5.69, 6.95, 7.59, 9.6, 8.8, 10.73, 0.0, 0.0, 0.0, -0.0, 10.28, 5.86, 5.5, 9.46, 11.64, 13.41, 13.41, 12.88, 12.03, 12.03, 12.07, 11.8, 12.04, 10.29, 11.25, 10.84, 9.32, 8.22, 5.46, 0.0, 9.6, 7.27, 3.11, 2.39, 0.0, 0.0, -3.04, -11.9, -11.87, -9.48, -5.8, 0.0, 0.0, 0.0, -1.54, -3.4, -4.47, -6.45, -7.59, -8.22, -4.4, 0.0, 13.86, 13.86, 13.86, 13.88, 12.79, 12.79, 12.79, 13.57, 14.3, 14.3, 14.3, 14.75, 14.75, 15.2, 0.0, 0.0, 0.0, 0.0, 3.16, 2.21, 1.89, 3.3, 3.39, 5.09, 3.49, 3.59, 2.0, 0.0, 0.0, 0.0, 0.0, -5.6, 0.0, 0.0, 0.0, -0.0, 0.0, 0.0, -0.0, -0.0, -0.0, 0.0, 7.59, 9.6, 8.91, 8.48, 8.0, 7.6, 4.0, 4.4, 7.27, 0.0, 0.0, 0.0, 0.0, -3.6, -8.06, -3.45, 2.31, 9.62, 11.09, 11.4, 10.38, 10.38, 10.38, 9.96, 10.96, 11.18, 9.96, 8.93, 8.22, 7.93, 5.36, 2.33, 0.0, 6.95, 8.82, 6.42, 3.25, 0.0, -5.0, -5.75, -6.7, -8.58, -10.08, -11.62, -11.16, -7.9, -2.97, -4.2, -4.4, -3.8, -3.97, -4.42, -5.2, -2.69, -3.6, -3.6, 12.39, 13.86, 13.86, 13.57, 13.88, 12.79, 12.79, 12.79, 13.88, 13.57, 14.75, 14.75, 14.75, 15.2, 15.65, 0.0, 0.0, 0.0, 0.0, 2.72, 2.28, 4.42, 3.9, 5.23, 3.59, 3.59, 2.05, 0.0, 0.0, 0.0, -2.98, -3.69, -4.38, 0.0, 0.0, 0.0, 0.0, 0.0, 0.0, 0.0, 0.0, 0.0, 10.73, 8.8, 6.64, 8.06, 8.06, 7.2, 7.2, 6.01, 0.0, 0.0, 0.0, 0.0, 8.05, 0.0, -8.49, -6.95, 0.0, 9.3, 10.28, 10.18, 7.27, 6.95, 4.2, 4.2, 4.71, 9.83, 9.75, 8.24, 5.46, 1.63, 0.0, -3.68, 0.0, 10.0, 10.04, 9.5, 6.95, 4.38, 0.0, -8.85, -9.66, -10.4, -10.41, -9.39, -10.14, -9.54, -8.0, -7.67, -7.21, -5.06, -4.87, -4.26, -4.74, -4.96, -5.1, -5.1, 9.8, 12.39, 13.57, 13.15, 13.15, 12.79, 12.79, 13.19, 12.79, 12.79, 14.31, 14.75, 15.2, 15.2, 15.65, 11.06, 0.0, 0.0, 0.0, 0.0, 0.0, 2.28, 2.28, 3.9, 3.49, 3.49, 0.0, 0.0, 0.0, 0.0, -3.33, -3.33, -3.9, -10.12, -8.94, 0.0, 0.0, 0.0, 0.0, 0.0, 0.0, 0.0, 6.95, 8.06, 8.4, 8.0, 8.0, 8.49, 8.49, 8.94, 8.94, 9.39, 9.39, 9.39, 9.39, 9.39, 6.95, 10.28, 11.18, 11.62, 7.9, 10.28, 8.8, 8.4, 6.64, 5.69, 6.32, 3.8, 8.4, 4.6, 1.29, -1.71, -4.43, -5.98, 11.03, 12.9, 12.74, 11.06, 9.81, 7.66, 6.6, 3.81, -7.44, -12.14, -11.62, -9.83, -8.49, -8.49, -8.17, -7.2, -7.13, -5.69, -5.93, -5.59, -6.77, -6.64, -7.21, -7.21, 6.2, 9.8, 13.57, 13.57, 13.15, 13.15, 12.79, 12.79, 13.19, 13.7, 13.7, 14.75, 15.2, 15.2, 13.59, 6.8, 4.95, 0.0, 0.0, 0.0, 0.0, 0.0, 0.0, 4.18, 3.79, 3.9, 0.0, 0.0, 0.0, 0.0, -4.23, -4.34, -8.0, -7.2, -8.85, -6.01, -8.94, -10.28, -10.73, -7.27, -9.83, -9.39, -0.0, 7.6, 8.94, 9.39, 8.94, 8.94, 9.39, 9.39, 9.39, 9.83, 9.83, 9.83, 9.83, 9.83, 9.83, 10.28, 10.73, 7.9, 7.9, 9.2, 9.83, 7.81, 7.81, 8.06, 7.2, -6.01, -9.33, -4.4, -2.8, -0.89, -1.29, 2.89, 15.61, 15.93, 12.82, 9.35, 8.16, 7.0, 6.6, 5.14, 1.72, -11.2, -10.0, -8.94, -8.94, -8.49, -8.44, -9.75, -8.54, -6.63, -6.18, -6.98, -7.68, -7.4, -7.51, -7.51, 4.38, 9.8, 11.53, 11.9, 11.53, 11.53, 11.9, 12.79, 13.19, 13.19, 13.19, 14.75, 15.18, 14.84, 13.59, 7.6, 4.66, 4.95, 3.79, 0.0, 0.0, 0.0, 0.0, 0.0, 2.98, 0.0, 3.36, 0.0, 0.0, 0.0, -7.8, -5.65, -5.65, -7.8, -7.0, -6.94, -6.95, -7.81, -8.8, -10.0, -9.2, -10.28, 0.0, 9.83, 9.83, 9.83, 9.83, 9.39, 9.39, 9.39, 9.83, 9.83, 9.83, 9.83, 9.83, 10.28, 9.83, 10.73, 7.9, 5.0, 4.8, 7.27, 9.83, 7.6, 7.67, 7.28, 7.6, -8.94, -8.8, -6.7, -1.38, 2.72, 4.78, 5.42, 4.82, 3.24, 0.0, 0.0, 1.94, 2.72, 1.89, 2.35, -4.38, -11.87, -11.62, -10.28, -10.28, -11.02, -10.68, -10.68, -9.54, -7.96, -7.44, -7.92, -8.43, -8.18, -8.72, -8.72, 4.38, 7.69, 9.8, 11.53, 11.53, 11.53, 11.9, 11.9, 12.27, 13.19, 13.19, 13.59, 13.02, 11.06, 11.06, 6.8, 6.6, 4.66, 4.95, 4.81, 0.0, 0.0, 0.0, 0.0, 0.0, 0.0, 0.0, 0.0, 0.0, 0.0, 0.0, 0.0, -5.51, -5.51, -7.6, -6.8, -5.8, -5.2, -4.6, -3.8, -2.17, 0.0, 4.2, 6.64, 6.32, 7.59, 6.95, 9.83, 9.39, 9.39, 9.39, 9.39, 9.39, 9.39, 8.94, 9.39, 10.73, 6.95, 3.25, 0.0, 0.0, 9.83, 8.8, 7.81, 7.6, 6.79, 6.32, 9.39, 0.0, 0.0, 3.25, 5.36, 5.96, 4.27, 0.0, -5.71, -10.77, -10.52, -4.67, -2.01, -1.01, 0.0, -4.66, -9.48, -12.07, -10.6, -7.27, -7.27, -11.02, -10.73, -10.68, -10.92, -10.2, -8.95, -8.67, -8.82, -8.99, -8.99, 4.38, 7.69, 7.69, 9.8, 9.8, 9.8, 9.8, 11.9, 12.27, 12.65, 12.27, 12.65, 11.06, 11.06, 7.0, 7.0, 6.6, 4.66, 3.14, 0.0, 5.37, 5.23, 5.23, 0.0, 0.0, 0.0, 0.0, 0.0, 0.0, 0.0, 0.0, 0.0, 0.0, -4.23, -4.12, -4.01, -5.48, -4.81, -2.28, -1.69, 0.0, 0.0, 1.62, 3.11, 3.49, 4.8, 6.95, 6.95, 6.64, 9.39, 8.94, 8.94, 8.94, 9.39, 9.83, 8.94, 9.97, 9.2, 0.0, 0.0, 0.0, 6.95, 6.95, 6.95, 6.32, 6.32, 6.64, 9.83, 7.59, 8.22, 8.61, 8.22, 6.97, 3.6, -1.97, -9.42, -14.36, -13.59, -11.38, -8.91, -5.26, -2.38, 0.0, 0.0, 0.0, 0.0, 0.0, 0.0, -5.7, -9.75, -9.24, -11.87, -11.62, -9.21, -8.99, -8.72, -8.58, -8.58, 4.38, 7.69, 7.69, 9.8, 9.8, 9.8, 11.09, 10.12, 10.43, 10.75, 12.65, 10.75, 10.75, 8.68, 4.95, 4.95, 4.81, 0.0, 0.0, 0.0, 3.33, 3.24, 3.16, 0.0, 0.0, 0.0, 0.0, 0.0, 0.0, 0.0, 0.0, 0.0, 0.0, 0.0, 0.0, -3.33, -3.07, -2.28, -2.06, -1.84, 0.0, 0.0, 0.0, 1.54, 1.47, 2.99, 4.6, 6.95, 6.64, 8.94, 8.49, 8.49, 8.49, 8.94, 8.94, 9.83, 9.54, 10.41, 10.73, 0.0, 4.0, 5.21, 6.64, 7.81, 7.81, 8.91, 8.4, 9.83, 9.75, 11.18, 11.61, 11.64, 9.96, 6.25, -9.66, -12.94, -16.14, -16.24, -15.09, -12.89, -10.22, -6.18, -2.98, 0.0, 0.0, 0.0, 0.0, -6.64, -7.21, -7.9, -10.0, -11.03, -11.03, -8.0, -8.06, -7.89, -8.48, -8.48, 4.38, 4.38, 3.36, 6.2, 9.8, 9.8, 11.44, 11.44, 10.43, 10.75, 10.75, 8.43, 8.68, 8.68, 8.68, 4.95, 4.81, 4.66, 0.0, 0.0, 3.33, 3.16, 2.98, 0.0, 0.0, 0.0, 0.0, 0.0, 0.0, 0.0, 0.0, 0.0, 0.0, 0.0, 0.0, 0.0, 0.0, 0.0, 0.0, 0.0, 0.0, 0.0, 0.0, 1.47, 1.32, 1.49, 0.0, 0.0, 0.0, 8.49, 8.05, 8.49, 8.49, 8.49, 8.94, 8.94, 9.39, 10.28, 10.73, 8.94, 4.0, 4.0, 6.64, 8.48, 8.67, 9.39, 9.39, 9.39, 9.83, 8.4, 7.9, 11.87, 4.55, 2.4, -11.18, -9.83, -13.92, -15.24, -15.9, -15.76, -12.89, -10.12, -7.13, -5.46, -6.2, -6.7, -8.55, -7.33, -7.9, -8.22, -8.85, 0.0, 7.27, 6.32, 0.0, -7.07, -8.24, -8.24, 0.0, 0.0, 3.36, 6.2, 9.8, 11.09, 11.09, 11.44, 11.8, 10.75, 10.75, 11.06, 8.68, 8.68, 8.68, 7.0, 3.79, 3.58, 3.79, 0.0, 0.0, 0.0, 0.0, 0.0, 0.0, 0.0, 0.0, 0.0, 0.0, 0.0, 0.0, 0.0, 0.0, 0.0, 0.0, 0.0, 0.0, 0.0, 0.0, 0.0, 0.0, 0.0, 0.0, 1.69, 1.47, 1.49, 0.0, 0.0, 0.0, 6.32, 6.32, 6.01, 8.49, 8.49, 8.49, 8.49, 8.05, 8.48, 10.28, 9.2, 8.49, -0.0, 6.01, 8.49, 8.67, 9.39, 9.21, 9.33, 8.48, 9.83, -4.6, -3.2, 0.0, 1.17, 4.23, -14.3, -12.52, -12.22, -13.7, -14.84, -15.0, -12.42, -10.3, -9.48, -9.84, -10.09, -9.86, -8.8, -8.91, 0.0, 0.0, 6.64, 4.2, 0.0, 0.0, -6.01, -7.44, -7.44, 0.0, 0.0, 0.0, 6.2, 9.8, 11.09, 12.39, 11.44, 11.8, 10.75, 10.75, 10.75, 8.68, 8.68, 7.0, 7.0, 7.0, 3.69, 3.69, 3.9, 0.0, 0.0, 0.0, 0.0, 0.0, 0.0, 0.0, 0.0, 0.0, 0.0, 0.0, 0.0, 0.0, 0.0, 0.0, 0.0, 0.0, 0.0, 0.0, 0.0, 0.0, 0.0, 0.0, 1.69, 1.62, 1.54, 1.32, 1.67, 1.75, 1.84, 4.0, 4.6, 6.01, 8.05, 8.49, 8.49, 8.49, 6.8, 8.94, 0.0, 0.0, 0.0, 0.0, 9.39, 9.39, 9.39, 9.21, 9.21, 10.28, -10.28, -10.6, -7.19, -1.27, 1.78, 3.77, 4.03, 0.0, -15.19, -13.99, -11.45, -13.91, -13.92, -13.2, -12.29, -11.37, -10.27, -10.08, -8.48, -0.0, -0.0, -4.4, 0.0, 0.0, 0.0, -2.83, -4.96, -6.32, -6.32, 0.0, 0.0, 4.38, 7.69, 9.8, 11.09, 12.87, 11.44, 11.8, 11.8, 10.75, 10.75, 11.06, 7.0, 7.0, 7.0, 7.0, 3.79, 3.79, 3.07, 3.07, 0.0, 0.0, 0.0, 0.0, 0.0, 0.0, 0.0, 0.0, 0.0, 0.0, 0.0, 0.0, 0.0, 0.0, 0.0, 0.0, 0.0, 0.0, 0.0, 0.0, 0.0, 0.0, 0.0, 0.0, 0.0, 1.62, 1.4, 1.47, 1.54, 1.84, 1.67, 4.4, 6.01, 6.01, 8.49, 8.05, 8.05, 0.0, 0.0, 0.0, 0.0, 6.32, 9.39, 9.39, 8.94, 10.28, 10.73, 9.2, -10.28, -10.52, -8.1, -1.9, 0.89, 4.35, 7.16, 7.16, -1.44, -14.39, -12.08, -12.89, -14.23, -13.41, -12.07, -11.09, -10.73, -8.91, -0.0, -0.0, -2.06, -5.21, -10.28, -7.59, -5.7, -2.39, -2.97, -2.97, -2.97, 0.0, 0.0, 4.38, 11.53, 12.39, 12.87, 12.87, 11.88, 11.44, 11.8, 9.12, 9.12, 9.39, 6.8, 7.0, 7.0, 7.0, 7.0, 3.07, 3.07, 3.07, 3.07, 0.0, 0.0, 0.0, 0.0, 0.0, 0.0, 0.0, 0.0, 0.0, 0.0, 0.0, 0.0, 0.0, 0.0, 0.0, 0.0, 0.0, 0.0, 0.0, 0.0, 0.0, 0.0, 0.0, 0.0, 0.0, 0.0, 0.0, 0.0, 1.75, 1.75, 1.95, 1.84, 3.6, 6.8, 8.05, 5.37, 5.06, 0.0, 0.0, 0.0, 7.59, 8.67, 9.83, 9.39, 10.73, 10.28, 6.95, -10.28, -10.84, -8.22, -4.65, 0.0, 3.58, 6.72, 7.03, 3.59, -11.38, -11.57, -12.2, -13.99, -13.28, -11.8, -11.51, -11.18, -6.95, -0.0, -0.0, -2.83, -4.96, -9.75, -8.22, -9.67, -6.2, -5.95, -4.8, -4.8, 0.0, 0.0, 9.8, 11.53, 12.39, 12.39, 11.88, 11.09, 11.44, 11.44, 8.85, 9.12, 9.12, 9.12, 6.8, 6.8, 7.0, 5.81, 3.07, 3.07, 3.07, 3.07, 3.07, 0.0, 0.0, 0.0, 0.0, 0.0, 0.0, 0.0, 0.0, 0.0, 0.0, 0.0, 0.0, 0.0, 0.0, 0.0, 0.0, 0.0, 0.0, 0.0, 0.0, 0.0, 0.0, 0.0, 0.0, 0.0, 0.0, 0.0, 0.0, 0.0, 2.06, 1.84, 2.26, 3.4, 7.6, 5.37, 3.2, -0.0, -0.0, 0.0, 8.8, 8.91, 9.11, 10.6, 10.73, 0.0, -0.0, -10.28, -10.6, -8.53, -7.28, -5.6, -2.54, 0.0, 0.0, 1.88, 0.0, -11.18, -10.68, -13.7, -14.01, -12.6, -11.95, -10.8, -5.7, -3.8, -0.0, -0.0, -4.6, -5.0, -11.45, -10.41, -10.41, -8.53, -8.22, -8.22, 0.0, 0.0, 9.8, 11.53, 12.39, 12.39, 11.09, 11.44, 11.44, 11.44, 10.43, 9.12, 9.39, 9.39, 9.39, 6.8, 5.64, 5.64, 5.64, 2.98, 3.07, 3.07, 3.07, 3.07, 0.0, 2.57, 2.57, 2.65, 2.72, 0.0, 0.0, 0.0, 0.0, 0.0, 0.0, 0.0, 0.0, 0.0, 0.0, 0.0, 0.0, 0.0, 0.0, 0.0, 0.0, 0.0, 0.0, 0.0, 0.0, 0.0, 0.0, 0.0, 0.0, 0.0, 0.0, 0.0, 0.0, 0.0, 3.2, -0.0, -0.0, -0.0, 0.0, 9.39, 9.75, 9.97, 10.73, 10.28, -6.95, -7.27, -10.0, -5.6, -5.08, -8.54, -10.58, -9.78, -7.95, -3.69, 0.0, -11.45, -9.39, -12.97, -14.01, -13.39, -11.91, -10.18, -4.4, -7.27, -10.73, -0.0, -0.0, -0.0, -0.0, -12.96, -12.72, -10.79, -8.53, -8.53, 4.38, 4.38, 9.8, 11.53, 12.39, 12.39, 11.09, 11.44, 11.44, 11.44, 10.12, 10.75, 9.12, 9.39, 9.66, 8.05, 5.64, 5.64, 5.64, 2.98, 3.07, 3.07, 2.57, 2.57, 3.07, 3.07, 2.98, 3.07, 2.65, 0.0, 0.0, 0.0, 0.0, 0.0, 0.0, 0.0, 0.0, 0.0, 0.0, 0.0, 0.0, 0.0, 0.0, 0.0, 0.0, 0.0, 0.0, 0.0, 0.0, 0.0, 0.0, 0.0, 0.0, 0.0, 0.0, 0.0, 0.0, 0.0, -0.0, -0.0, -0.0, -6.32, 0.0, 0.0, 9.39, 9.39, 9.83, 9.6, 0.0, -9.83, -10.6, -6.21, -2.32, -3.81, -8.83, -12.2, -10.59, -8.43, -5.92, -6.2, -13.01, -12.58, -12.66, -12.79, -11.8, -12.72, -9.48, -9.17, -8.85, 0.0, 5.4, 11.2, 12.52, -12.96, -11.6, -10.79, -8.85, -8.85, 3.25, 3.25, 9.8, 11.53, 12.39, 12.39, 11.09, 11.44, 11.44, 11.8, 10.43, 10.12, 10.75, 9.12, 9.39, 8.05, 5.81, 5.81, 5.81, 5.81, 2.57, 2.57, 2.57, 2.57, 3.07, 3.07, 2.98, 2.89, 2.98, 0.0, 0.0, 0.0, 0.0, 0.0, 0.0, 2.28, 0.0, 0.0, 0.0, 0.0, 0.0, 0.0, 0.0, 0.0, 0.0, 0.0, 0.0, 0.0, 0.0, 0.0, -3.68, -2.97, -2.12, 0.0, 0.0, 0.0, 0.0, 0.0, 0.0, -0.0, -0.0, -8.49, -8.49, 8.94, 8.94, 8.49, 6.01, 0.0, 0.0, -5.7, -9.64, -9.6, -3.04, 0.0, -1.73, -8.54, -11.25, -9.49, -8.58, -8.29, -13.23, -16.37, -14.31, -13.59, -13.51, -12.87, -10.02, -3.69, 0.0, 0.0, 12.96, 12.96, 12.96, 8.85, -5.8, -5.8, -3.96, -3.96, 4.98, 4.98, 8.05, 9.8, 12.39, 11.09, 11.09, 11.44, 11.44, 11.8, 10.43, 10.43, 10.43, 9.39, 9.39, 8.05, 5.81, 5.98, 5.98, 5.09, 2.65, 2.65, 2.57, 2.57, 3.07, 3.07, 2.98, 2.81, 0.0, 0.0, 0.0, 0.0, 0.0, 0.0, 0.0, 2.28, 0.0, 0.0, 0.0, 0.0, 0.0, 0.0, 0.0, 0.0, 0.0, -1.84, 0.0, 0.0, 0.0, -3.04, -2.49, -2.54, -2.26, -3.0, -2.6, -1.55, -1.7, -3.2, -5.37, -7.15, -4.74, -7.6, 0.0, 0.0, 8.94, 8.49, 8.05, -9.39, -5.7, -3.98, -8.18, -10.28, -11.2, 0.0, 0.0, -3.53, -8.77, -8.85, -8.61, -8.43, -9.87, -13.59, -14.79, -11.38, -11.7, -10.89, -9.42, -6.54, -2.81, 0.0, 3.96, 11.87, 11.87, 6.94, 0.0, 0.0, 0.0, 0.0, 4.98, 4.98, 8.05, 9.8, 9.8, 9.8, 11.09, 11.44, 11.44, 11.8, 10.43, 10.43, 10.43, 10.43, 9.39, 8.05, 5.81, 4.95, 4.95, 5.09, 2.65, 2.65, 2.65, 2.57, 2.98, 2.98, 2.98, 2.81, 2.72, 0.0, 0.0, 0.0, 0.0, 0.0, 0.0, 0.0, 0.0, 0.0, 0.0, 0.0, 0.0, 0.0, 0.0, 0.0, 0.0, 0.0, 0.0, 0.0, -2.72, -2.28, -2.28, -2.17, -2.83, -2.54, -3.2, -2.8, -1.84, -1.7, -2.8, -5.6, -5.81, -7.6, 0.0, 0.0, 8.49, 7.63, 8.05, 0.0, -6.95, -4.8, -10.28, -7.59, -11.62, -9.42, -3.44, -1.88, -5.04, -11.71, -11.71, -6.87, -3.88, -2.28, 0.0, 0.0, -3.04, -4.7, -4.7, -4.35, 0.0, 0.0, 5.6, 8.53, 8.53, 6.94, 3.04, 0.0, 0.0, 0.0, 2.2, 2.2, 4.98, 8.05, 8.31, 9.8, 9.8, 10.12, 10.12, 10.43, 10.43, 10.75, 10.43, 10.43, 9.12, 7.0, 5.81, 5.81, 4.95, 5.09, 5.09, 2.72, 2.65, 3.16, 2.98, 2.98, 2.98, 2.89, 2.43, 2.43, 2.89, 2.98, 0.0, 0.0, 0.0, 0.0, 0.0, 0.0, 0.0, 0.0, 0.0, 0.0, 0.0, 0.0, 0.0, 0.0, 0.0, -2.28, -2.28, -2.37, -1.93, -2.28, -2.28, -2.83, -2.54, -2.26, -2.12, -1.98, -1.7, -3.22, -7.6, -8.05, 0.0, 8.49, 6.8, 5.37, 7.2, -0.0, -9.39, -10.28, 0.0, -11.62, -11.71, -10.47, -8.33, -3.6, 0.0, 6.4, 0.0, -5.15, -3.2, -1.56, 0.0, 0.0, 0.0, 0.0, 0.0, 0.0, 0.0, 3.04, 4.75, 6.21, 5.4, 2.93, 0.0, 1.98, 0.0, 0.0, 2.2, 2.2, 4.24, 4.98, 8.31, 8.31, 9.8, 10.12, 10.43, 10.43, 10.75, 10.75, 10.75, 10.43, 10.43, 6.8, 5.64, 5.64, 4.81, 4.95, 5.09, 2.65, 2.65, 3.16, 3.07, 2.98, 2.98, 2.89, 2.89, 2.5, 2.5, 2.5, 2.5, 0.0, 0.0, 0.0, 0.0, 0.0, 0.0, 0.0, 0.0, 0.0, 0.0, 0.0, 0.0, 0.0, 0.0, -2.2, -2.2, -2.54, -2.1, -2.02, -2.28, -4.0, -4.71, -4.22, -3.97, -3.72, -3.47, -2.4, -3.48, -5.69, 0.0, 8.05, 6.01, 3.8, 3.4, 3.8, -0.0, -4.2, -6.95, -11.62, -6.67, -7.44, -7.67, -3.51, 2.66, 5.65, 3.16, 0.0, -6.29, -7.2, -3.24, 0.0, 0.0, 0.0, 0.0, 0.0, 1.13, 2.37, 2.52, 2.71, 3.19, 1.91, 0.0, 0.0, 0.0, 0.0, 2.2, 2.2, 4.24, 4.98, 5.15, 6.2, 8.58, 10.12, 10.43, 10.43, 10.75, 10.75, 10.75, 10.43, 8.18, 6.8, 5.64, 5.64, 4.81, 4.95, 4.95, 2.65, 3.16, 3.16, 3.07, 2.98, 2.98, 2.89, 2.89, 2.98, 2.5, 2.5, 0.0, 0.0, 0.0, 0.0, 0.0, 0.0, 0.0, 0.0, 0.0, 0.0, 0.0, 0.0, 0.0, 0.0, 0.0, -2.13, -2.2, -2.54, -2.28, -2.02, -3.65, -4.2, -3.8, -3.6, -3.4, -3.97, -3.72, -3.22, -2.4, -3.79, 0.0, 5.37, 3.6, -0.0, 5.69, 3.8, 6.32, -0.0, -0.0, -10.28, 0.0, -2.04, -3.8, -2.01, 0.89, 3.43, 2.61, 0.0, -5.79, -9.39, -8.85, 0.0, 0.0, 0.0, 0.0, 0.0, 0.0, 0.93, 1.01, 1.11, 1.44, 0.0, 0.0, 0.0, 0.0, 0.0, 1.83, 1.83, 2.2, 2.2, 5.15, 6.2, 6.4, 10.12, 10.43, 10.43, 10.75, 10.75, 8.43, 8.43, 8.18, 6.6, 5.64, 5.64, 5.64, 4.95, 5.81, 5.81, 3.16, 3.16, 3.07, 2.98, 2.98, 2.89, 2.89, 2.98, 2.98, 0.0, 0.0, 0.0, 0.0, 0.0, 0.0, 0.0, 0.0, 0.0, 0.0, 0.0, 0.0, 0.0, 0.0, 0.0, -1.91, -2.06, -4.81, -4.81, -4.48, -4.15, -3.82, -4.4, -4.0, -3.6, -3.4, -3.4, -3.72, -3.47, -3.22, -3.79, 0.0, -0.0, -0.0, -0.0, 3.6, 6.01, 8.0, -0.0, -0.0, 7.27, 5.6, 1.47, -0.87, -3.69, -4.05, -2.58, -3.38, -3.22, -3.93, -6.6, -11.99, -4.1, 0.0, 0.0, 0.0, 0.0, 0.0, 0.0, 0.0, 0.0, 0.0, 0.0, 0.0, 0.0, -1.71, -1.71, 0.0, 0.0, 2.2, 2.2, 5.15, 5.15, 6.4, 6.4, 10.43, 10.43, 8.43, 6.8, 6.8, 6.8, 6.8, 6.6, 6.6, 5.64, 5.64, 5.81, 5.81, 5.81, 5.81, 3.16, 3.07, 2.98, 2.89, 2.89, 2.89, 2.89, 0.0, 0.0, 0.0, 0.0, 0.0, 0.0, 0.0, 0.0, 0.0, 0.0, 0.0, 0.0, 0.0, 0.0, 0.0, 0.0, -1.91, -4.65, -4.98, -4.81, -4.65, -5.2, -4.8, -4.4, -4.0, -3.8, -3.4, -3.4, -3.72, -3.47, -3.22, -3.79, -8.05, 0.0, 0.0, 0.0, -0.0, 3.6, 6.01, 0.0, -0.0, -0.0, 5.4, 0.99, 0.0, -1.89, -5.99, -7.53, -7.39, -5.35, -2.59, -1.51, -4.52, -6.0, 0.0, 0.0, 0.0, 0.0, 0.0, 0.0, 0.0, 0.0, 0.0, 0.0, 0.0, -1.33, -1.5, -1.71, 0.0, 0.0, 2.13, 2.2, 2.28, 5.15, 6.4, 6.4, 6.6, 6.6, 6.8, 6.8, 6.8, 6.8, 6.8, 6.6, 6.6, 5.48, 5.64, 5.64, 5.81, 5.81, 5.81, 3.07, 3.07, 2.98, 2.89, 2.89, 2.81, 2.81, 0.0, 0.0, 0.0, 0.0, 0.0, 0.0, 0.0, 0.0, 0.0, 0.0, 0.0, 0.0, 0.0, 0.0, 0.0, 0.0, -2.72, -5.31, -6.4, -6.2, -5.8, -5.4, -4.8, -4.6, -4.0, -3.8, -3.6, -4.56, -5.06, -4.74, -4.43, -4.11, -5.36, -8.05, 0.0, 0.0, -0.0, -0.0, -0.0, 0.0, -0.0, -4.0, -8.22, 0.0, 2.38, 3.59, 0.0, -5.81, -7.95, -5.41, -1.83, 0.0, 0.0, 0.0, 0.0, 0.0, 0.0, 1.5, 1.33, 0.0, 0.0, 0.0, 0.0, 0.0, 0.0, -1.2, -1.33, -1.5, 0.0, 0.0, 2.13, 2.2, 2.2, 5.15, 5.15, 6.4, 6.4, 6.6, 6.6, 6.6, 6.8, 6.8, 6.6, 6.6, 6.6, 2.89, 5.48, 5.64, 5.64, 5.64, 2.98, 3.07, 3.07, 3.07, 2.89, 2.81, 2.81, 2.81, 0.0, 0.0, 0.0, 0.0, 0.0, 0.0, 0.0, 0.0, 0.0, 0.0, 0.0, 0.0, -2.81, -3.04, -2.28, -3.14, -2.98, -7.0, -6.6, -6.4, -6.2, -5.6, -4.8, -4.4, -4.0, -5.1, -4.83, -4.56, -5.37, -5.06, -4.74, -4.84, -7.6, 0.0, 0.0, 0.0, -0.0, -0.0, -0.0, 0.0, -0.0, -8.0, -10.73, -5.0, 0.0, 4.6, 5.06, 0.91, -4.6, -7.73, -5.2, 0.0, 0.0, 0.0, 0.0, 0.0, 0.0, 1.98, 1.44, 0.0, 0.0, 0.0, 0.0, -1.09, -1.09, -1.2, -1.33, -1.33, 0.0, 0.0, 0.0, 2.13, 2.2, 4.98, 5.15, 5.31, 5.31, 6.4, 6.6, 6.6, 6.6, 6.6, 6.6, 6.6, 3.58, 2.89, 5.48, 5.48, 5.64, 2.98, 2.98, 2.98, 2.98, 2.98, 2.89, 2.81, 2.81, 2.72, 0.0, 0.0, 0.0, 0.0, 0.0, 0.0, 0.0, 0.0, 0.0, 0.0, 0.0, -2.81, -2.72, -2.45, -4.48, -4.98, -2.89, -3.69, -3.47, -6.2, -6.0, -5.4, -4.4, -4.2, -4.0, -5.1, -4.83, -5.69, -5.69, -5.37, -5.06, -4.74, -5.2, 0.0, 0.0, 0.0, 0.0, 0.0, 7.15, -0.0, -6.01, -8.06, -10.28, -8.18, -5.2, -1.48, 1.65, 4.22, 3.11, -3.82, -11.18, 0.0, 0.0, 0.0, 0.0, 0.0, 0.0, 0.0, 0.0, 0.0, -1.16, -1.05, -1.05, -1.2, -1.2, -1.2, -1.2, -1.2, 0.0, 0.0, 1.83, 2.13, 4.24, 4.24, 5.15, 5.15, 5.15, 5.31, 6.4, 6.6, 6.6, 6.6, 3.58, 3.58, 3.58, 3.58, 3.58, 5.48, 2.98, 2.98, 2.98, 2.98, 2.98, 2.98, 2.89, 2.81, 2.72, 2.72, 2.63, 0.0, 0.0, 0.0, 0.0, 0.0, 0.0, 0.0, 0.0, 0.0, 0.0, -2.72, -2.63, -2.37, -2.28, -2.54, -2.81, -2.81, -2.63, -5.6, -5.4, -5.0, -4.2, -5.21, -5.36, -5.36, -4.83, -6.44, -6.44, -6.44, -6.08, -5.37, -5.58, -7.6, 0.0, 0.0, 8.05, 8.05, 7.15, -0.0, -5.69, -8.06, -9.39, -9.55, -8.59, -7.24, -2.81, 2.54, 5.88, 6.48, 6.47, 6.02, 1.08, -2.28, -5.45, -5.8, -6.21, -5.4, -4.24, -3.47, -3.18, -3.06, -3.18, -2.45, -2.37, -2.37, -2.37, -2.37, 0.0, 0.0, 1.83, 2.13, 4.24, 4.24, 4.38, 4.38, 5.31, 5.31, 5.31, 6.6, 6.6, 3.58, 3.58, 3.58, 3.58, 3.58, 3.58, 2.89, 2.98, 2.98, 2.98, 2.98, 2.98, 2.98, 2.89, 2.81, 2.72, 2.63, 2.63, 0.0, 0.0, 0.0, 0.0, 0.0, 0.0, 0.0, 0.0, 0.0, -2.2, -2.63, -2.54, -2.28, -2.19, -2.37, -4.98, -4.98, -4.98, -4.48, -5.0, -4.6, -4.0, -5.36, -5.1, -5.1, -5.69, -5.69, -6.08, -6.44, -6.44, -5.37, -5.06, -5.94, -8.05, 0.0, 8.05, 5.06, 5.37, -0.0, -6.32, -8.06, -9.39, -9.55, -8.38, -6.98, -3.04, 1.05, 5.25, 10.12, 11.54, 10.92, 6.76, 0.0, -7.93, -10.18, -9.84, -7.78, -7.68, -6.7, -5.6, -4.32, -4.65, -4.48, -4.48, -4.32, -4.32, -4.32, 0.0, 0.0, 1.83, 1.83, 4.1, 4.24, 4.24, 4.38, 4.52, 5.31, 5.31, 5.31, 2.89, 3.58, 3.58, 3.58, 3.58, 3.58, 3.58, 3.58, 2.89, 2.98, 2.98, 2.98, 2.98, 2.98, 2.89, 2.81, 2.72, 2.72, 2.63, 0.0, 0.0, 0.0, 0.0, 0.0, 0.0, 0.0, 0.0, 0.0, -2.54, -2.54, -2.54, -2.28, -2.19, -4.48, -4.81, -4.81, -4.81, -4.48, -4.15, -4.4, -4.0, -5.1, -4.83, -5.69, -5.69, -5.69, -5.37, -6.08, -6.08, -5.37, -5.06, -5.58, -5.2, 0.0, 8.05, 5.06, -0.0, -0.0, -5.69, -8.49, -8.94, -9.33, -7.27, 0.0, 3.68, 2.81, 5.5, 10.27, 12.64, 12.99, 9.72, 7.32, -2.28, -13.96, -11.99, -9.97, -9.17, -9.17, -6.4, -5.75, -5.98, -6.21, -5.64, -5.64, -5.64, -5.64, 1.77, 1.77, 1.83, 3.56, 3.68, 3.68, 4.24, 4.38, 4.38, 5.31, 5.31, 2.81, 2.89, 2.89, 3.58, 3.58, 3.58, 3.58, 3.58, 3.58, 2.89, 2.98, 2.98, 2.98, 2.98, 2.98, 2.89, 2.81, 2.72, 2.72, 2.63, 0.0, 0.0, 0.0, 0.0, 0.0, 0.0, 0.0, 0.0, -2.54, -2.54, -2.54, -2.54, -2.37, -4.15, -4.48, -4.65, -4.65, -4.65, -4.32, -3.98, -5.9, -5.36, -5.1, -4.83, -5.69, -5.69, -5.37, -5.69, -6.08, -5.72, -5.72, -4.74, -4.43, -4.84, 0.0, 0.0, 0.0, -0.0, -0.0, -0.0, -6.01, -8.0, -6.64, 0.0, 10.73, 9.3, 8.85, 9.17, 10.79, 10.12, 8.74, 9.69, 10.52, 8.38, -10.05, -13.15, -11.58, -10.12, -8.53, -7.65, -7.65, -7.36, -6.2, -6.71, -5.92, -5.92, -5.92, 1.77, 1.77, 1.83, 3.56, 3.56, 3.68, 3.81, 4.38, 4.38, 4.38, 2.81, 2.81, 2.81, 2.89, 2.89, 3.58, 3.58, 3.58, 3.58, 3.47, 3.47, 3.58, 3.69, 3.69, 3.69, 2.98, 2.89, 2.81, 2.72, 2.72, 0.0, 0.0, 0.0, 0.0, 0.0, 0.0, 0.0, 0.0, 0.0, -2.45, -2.45, -2.45, -2.45, -2.37, -4.15, -4.48, -4.65, -4.65, -4.48, -4.15, -6.44, -6.17, -5.63, -5.36, -4.83, -4.75, -5.37, -5.37, -5.37, -6.08, -6.08, -5.36, -4.43, -3.79, -4.09, -8.05, 0.0, -0.0, -0.0, -0.0, -0.0, -0.0, -0.0, -0.0, 6.95, 10.28, 10.18, 11.03, 10.8, 10.61, 8.83, 6.62, 9.69, 11.62, 11.28, 5.3, -14.79, -12.51, -9.5, -9.16, -8.53, -9.08, -7.9, -5.95, -6.2, -6.2, -6.2, -6.2, 1.77, 1.77, 3.56, 3.56, 3.56, 3.68, 3.81, 4.38, 4.38, 4.52, 2.81, 2.81, 2.89, 2.89, 2.89, 3.58, 3.58, 3.58, 3.58, 3.58, 3.58, 3.58, 3.69, 3.69, 3.69, 3.58, 3.58, 2.81, 2.72, 2.63, 0.0, 0.0, 0.0, 0.0, 0.0, 0.0, 0.0, 0.0, 0.0, -2.45, -2.45, -2.45, -2.45, -2.37, -4.32, -4.65, -4.81, -4.65, -4.32, -4.8, -6.17, -5.9, -5.9, -5.63, -5.31, -5.03, -4.75, -5.06, -5.59, -6.52, -6.08, -5.36, -4.11, -3.79, -4.09, -6.71, -0.0, -0.0, 1.84, 2.06, 2.83, -0.0, -0.0, -0.0, 4.2, 9.83, 10.28, 10.73, 11.02, 10.09, 7.28, 6.9, 8.22, 10.26, 8.77, 7.73, -13.44, -11.62, -9.67, -7.73, -7.26, -6.45, -3.53, 0.0, 7.9, 0.0, 0.0, 0.0, 1.77, 1.77, 3.56, 3.56, 3.56, 3.68, 3.81, 3.81, 4.38, 2.35, 2.35, 2.81, 2.89, 2.89, 2.89, 2.89, 3.58, 3.58, 3.58, 3.58, 3.58, 3.58, 3.69, 3.69, 3.58, 3.58, 3.58, 3.47, 2.72, 0.0, 0.0, 0.0, 0.0, 0.0, 0.0, 0.0, 0.0, 0.0, -2.37, -2.37, -2.37, -2.37, -2.37, -2.37, -4.48, -4.65, -4.81, -4.65, -5.2, -6.44, -6.17, -5.9, -5.9, -6.32, -6.01, -5.03, -5.03, -5.37, -5.59, -6.13, -6.13, -5.6, -5.2, -4.29, -4.09, -5.6, -4.43, -0.0, -0.0, -0.0, -0.0, 6.32, 6.64, -0.0, -0.0, 6.64, 9.83, 9.83, 10.73, 9.58, 7.73, 7.28, 6.3, 5.81, 3.76, 0.0, -8.57, -9.45, -9.39, -7.27, -6.2, -5.75, -2.71, 0.0, 7.9, 0.0, 0.0, 0.0, 1.77, 3.44, 3.44, 3.56, 3.56, 3.56, 3.68, 3.81, 4.38, 4.52, 2.35, 2.89, 2.89, 2.89, 2.89, 2.89, 3.58, 3.58, 3.58, 3.58, 3.58, 3.58, 3.58, 3.58, 3.58, 3.58, 3.58, 3.47, 3.36, 0.0, 0.0, 0.0, 0.0, 0.0, 0.0, 0.0, 0.0, 0.0, -2.28, -2.28, -2.37, -2.37, -2.37, -4.32, -4.48, -4.65, -5.8, -5.6, -5.4, -6.71, -6.17, -5.9, -5.9, -6.32, -6.01, -5.03, -5.03, -5.93, -5.93, -6.13, -6.13, -6.0, -5.6, -4.8, -4.8, -5.09, -6.0, -3.47, -2.49, -1.73, -0.0, -0.0, 9.39, 9.83, -0.0, 4.2, 8.8, 9.33, 10.28, 9.3, 8.22, 6.45, 4.39, 1.1, -2.16, 0.0, -1.94, -7.9, -8.33, -8.24, -5.63, -6.42, -5.95, -5.0, 0.0, -0.0, -0.0, -0.0, 3.44, 3.44, 3.44, 3.56, 3.56, 3.56, 3.68, 3.81, 4.38, 4.52, 2.35, 2.89, 2.89, 2.89, 2.89, 2.89, 3.58, 3.58, 3.58, 3.58, 3.58, 3.58, 3.58, 3.58, 3.58, 3.58, 3.47, 3.47, 0.0, 0.0, 0.0, 0.0, 0.0, 0.0, 0.0, 0.0, 0.0, 0.0, -2.28, -2.28, -2.28, -2.28, -2.28, -4.32, -4.32, -5.2, -5.4, -5.4, -7.24, -6.71, -6.44, -6.17, -5.9, -6.64, -6.32, -6.01, -6.28, -6.28, -5.93, -6.52, -6.13, -6.23, -5.6, -4.65, -5.2, -5.64, -6.71, -4.74, -3.72, -3.2, -4.22, -5.69, -8.49, 0.0, 0.0, -0.0, 8.4, 9.83, 9.2, 7.59, 6.2, 5.98, 2.93, -0.85, -3.98, 0.0, 10.61, 4.1, -0.0, -9.39, -3.8, -6.01, -7.81, -9.39, -6.95, -4.4, -4.4, -4.4, 3.44, 3.44, 3.44, 3.44, 3.56, 3.56, 3.68, 3.68, 4.38, 2.28, 2.35, 2.35, 2.89, 2.89, 2.89, 2.89, 3.58, 3.58, 3.58, 3.69, 3.58, 3.58, 3.58, 3.58, 3.58, 3.47, 3.47, 0.0, 0.0, 0.0, 0.0, 0.0, 0.0, 0.0, 0.0, 0.0, 0.0, -2.28, -2.28, -2.19, -2.28, -2.28, -2.28, -4.32, -4.15, -5.0, -5.2, -5.2, -6.97, -6.71, -6.44, -6.17, -6.95, -6.95, -6.64, -6.98, -6.63, -6.63, -6.28, -6.52, -6.13, -6.64, -6.23, -5.37, -5.81, -6.14, -6.14, -6.26, -5.06, -3.97, -5.37, -7.07, -8.06, -8.05, -8.05, -0.0, 6.64, 9.83, 4.6, 4.8, 3.39, 5.0, 0.0, 0.0, 0.0, 4.99, 13.05, 11.88, 10.41, 5.0, -0.0, -9.39, -8.05, -8.49, -6.32, -2.97, -2.97, -2.97, 3.44, 3.44, 3.44, 3.44, 3.44, 3.56, 3.68, 4.38, 4.38, 2.28, 2.28, 2.35, 2.89, 2.89, 2.89, 2.89, 3.58, 3.58, 3.58, 3.69, 3.69, 3.58, 3.58, 3.58, 3.47, 3.47, 0.0, 0.0, 0.0, 0.0, 0.0, 0.0, 0.0, 0.0, 0.0, 0.0, 0.0, -2.28, -2.28, -2.19, -2.19, -2.28, -2.28, -4.15, -4.15, -4.8, -4.8, -6.44, -6.44, -6.44, -6.44, -6.17, -6.95, -6.95, -7.68, -7.33, -6.98, -6.98, -6.63, -6.52, -6.52, -6.64, -6.23, -5.75, -5.75, -6.23, -6.23, -5.6, -7.15, -7.15, -5.69, -7.07, -7.44, -8.48, -8.0, -6.01, -6.64, -9.83, -4.6, 0.0, 0.0, 0.0, 0.99, 2.52, 2.91, 4.66, 9.77, 10.41, 8.22, 2.19, -0.0, -0.0, 6.32, -0.0, -6.64, -2.69, -2.69, -2.69, 3.44, 3.44, 3.44, 3.44, 3.44, 3.44, 1.83, 2.2, 2.2, 2.2, 2.28, 2.35, 2.81, 2.89, 2.89, 2.89, 3.58, 3.58, 3.58, 3.69, 3.69, 3.69, 3.69, 0.0, 0.0, 0.0, 0.0, 0.0, 0.0, 0.0, 0.0, 0.0, 0.0, 0.0, 0.0, 0.0, 0.0, -2.28, -2.19, -2.19, -2.19, -2.19, -4.15, -4.15, -3.98, -4.8, -4.8, -6.44, -6.17, -6.17, -6.17, -7.27, -7.27, -6.95, -7.68, -7.33, -7.33, -6.98, -7.28, -6.9, -7.47, -7.06, -6.64, -5.75, -5.75, -6.23, -6.23, -6.23, -5.21, -7.6, -5.37, -4.46, -6.01, -6.32, -4.0, -4.0, -8.4, -9.83, -9.75, -8.55, -7.27, -1.76, -1.2, 0.0, 3.43, 2.07, 8.68, 8.53, 7.27, 2.02, -0.0, -0.0, 3.25, -0.0, -4.2, -2.97, -2.97, -2.97, 3.44, 3.44, 3.44, 3.44, 1.83, 1.83, 2.13, 2.13, 2.2, 2.2, 2.28, 2.35, 2.81, 2.89, 2.89, 2.89, 3.58, 3.58, 3.58, 3.58, 0.0, 0.0, 0.0, 0.0, 0.0, 0.0, 0.0, 0.0, 0.0, 0.0, 0.0, 0.0, 0.0, 0.0, 0.0, 0.0, -2.37, -2.28, -2.28, -2.19, -2.19, -2.19, -4.15, -4.15, -4.8, -4.8, -6.44, -6.17, -6.17, -6.17, -6.17, -7.27, -7.27, -7.68, -7.68, -7.68, -7.33, -6.98, -7.67, -7.6, -7.63, -7.21, -7.06, -6.64, -6.13, -6.13, -6.79, -6.79, -6.0, -7.15, -5.37, -4.22, -4.83, -3.6, -2.69, -4.0, -8.4, -9.83, -10.28, -9.97, -8.55, -6.42, -5.0, -3.14, 0.0, 0.0, 0.0, 7.44, 7.21, 5.1, -0.0, -0.0, -0.0, -0.0, -0.0, -2.97, -2.97, -2.97, 1.77, 1.77, 1.77, 1.77, 1.83, 1.83, 2.13, 2.2, 2.2, 2.2, 2.28, 2.28, 2.81, 2.89, 2.89, 2.89, 3.58, 3.58, 0.0, 0.0, 0.0, 0.0, 0.0, 0.0, 0.0, 0.0, 0.0, 0.0, 0.0, 0.0, 0.0, 0.0, 0.0, 0.0, 0.0, 0.0, -2.28, -2.28, -2.28, -2.19, -2.71, -5.0, -5.0, -4.8, -4.8, -4.8, -6.44, -6.17, -6.17, -6.17, -7.27, -6.95, -7.27, -7.68, -7.68, -7.68, -7.33, -7.33, -8.0, -7.6, -8.06, -7.63, -7.63, -7.06, -6.13, -6.13, -6.79, -6.79, -6.64, -7.6, -7.21, -5.37, -3.97, -4.22, -4.46, -8.48, -9.39, -9.39, -9.83, -9.83, -9.97, -8.03, -6.5, -5.6, -3.92, -0.99, -2.11, 6.4, 7.9, 6.63, 3.49, -0.0, -0.0, -0.0, -0.0, -2.28, -2.28, -2.28, 1.77, 1.77, 1.77, 1.77, 1.83, 1.83, 2.13, 2.2, 2.2, 2.2, 2.28, 2.72, 2.81, 2.81, 2.89, 2.81, 3.47, 0.0, 0.0, 0.0, 0.0, 0.0, 0.0, 0.0, 0.0, 0.0, 0.0, 0.0, 0.0, 0.0, 0.0, 0.0, 0.0, 0.0, 0.0, -2.93, -2.93, -2.82, -2.82, -2.71, -5.0, -5.0, -4.8, -4.8, -4.8, -6.44, -6.17, -6.17, -6.17, -6.17, -7.27, -6.95, -7.68, -7.68, -7.68, -7.33, -7.33, -7.81, -8.4, -8.0, -8.06, -8.06, -7.63, -7.21, -6.8, -6.4, -6.79, -7.21, -7.21, -6.64, -7.15, -6.32, -3.97, -3.2, -6.32, -7.07, -8.48, -8.91, -9.11, -9.83, -10.28, -9.2, -6.5, -6.44, -5.81, -3.69, -3.33, -4.81, 7.44, 6.32, 5.63, 1.93, -0.0, -0.0, -0.0, -0.0, -0.0, -0.0, 1.77, 1.77, 1.77, 1.77, 1.77, 2.13, 2.13, 2.13, 2.2, 2.2, 2.28, 2.72, 2.81, 2.81, 2.81, 2.81, 0.0, 0.0, 0.0, 0.0, 0.0, 0.0, 0.0, 0.0, 0.0, 0.0, 0.0, 0.0, 0.0, 0.0, 0.0, 0.0, 0.0, 0.0, -2.93, -2.93, -2.93, -2.82, -2.82, -2.82, -5.0, -5.0, -5.0, -4.8, -4.8, -6.44, -6.17, -6.17, -6.17, -7.27, -6.95, -6.95, -7.68, -7.68, -7.68, -7.33, -7.33, -7.44, -8.4, -8.0, -8.48, -8.06, -7.63, -7.63, -7.21, -6.8, -6.8, -7.21, -7.2, -6.8, -6.79, -8.05, 0.0, 0.0, -3.2, -6.7, -6.01, -7.81, -7.81, -9.54, -10.28, -9.6, -7.27, -6.44, -6.57, -4.93, -2.87, -2.5, -4.24, 3.82, 4.2, 4.2, 1.93, 1.84, 1.84, -0.0, -0.0, -0.0, 1.77, 1.77, 1.83, 1.83, 1.83, 1.83, 0.0, 0.0, 0.0, 2.2, 2.2, 2.28, 2.81, 2.81, 2.81, 0.0, 0.0, 0.0, 0.0, 0.0, 0.0, 0.0, 0.0, 0.0, 0.0, 0.0, 0.0, 0.0, 0.0, 0.0, 0.0, 0.0, 0.0, -2.93, -2.93, -2.82, -2.82, -2.82, -2.82, -5.0, -5.0, -5.0, -5.0, -4.8, -6.44, -6.44, -6.44, -6.17, -6.17, -7.27, -6.95, -6.95, -7.68, -7.68, -7.33, -7.33, -7.81, -7.44, -8.0, -8.0, -8.48, -8.06, -8.06, -7.63, -7.63, -6.8, -6.8, -7.4, -7.4, -6.6, -5.95, -5.36, 0.0, 0.0, -4.74, -5.37, -6.01, -6.64, -7.81, -9.54, -10.28, -8.93, -7.27, -6.92, -5.8, -5.11, -2.88, -0.92, -1.15, -3.04, -0.0, 3.11, 2.28, 2.17, 2.83, 4.0, 4.0, 4.0, 1.77, 1.77, 1.83, 1.83, 1.83, 1.83, 0.0, 0.0, 0.0, 2.2, 2.2, 2.28, 2.81, 2.81, 2.81, 0.0, 0.0, 0.0, 0.0, 0.0, 0.0, 0.0, 0.0, 0.0, 0.0, 0.0, 0.0, 0.0, 0.0, 0.0, 0.0, 0.0, 0.0, -2.93, -2.93, -2.82, -2.82, -2.82, -2.82, -5.0, -5.0, -5.0, -5.0, -4.8, -6.44, -6.44, -6.44, -6.17, -6.17, -7.27, -6.95, -6.95, -7.68, -7.68, -7.33, -7.33, -7.81, -7.44, -8.0, -8.0, -8.48, -8.06, -8.06, -7.63, -7.63, -6.8, -6.8, -7.4, -7.4, -6.6, -5.95, -5.36, 0.0, 0.0, -4.74, -5.37, -6.32, -6.64, -7.81, -9.54, -10.28, -8.93, -7.27, -6.45, -5.78, -4.81, -3.09, -0.92, 0.0, 0.0, -2.37, 0.0, 0.0, 9.39, 9.39, 9.39, 9.39, 9.39]}]